EW2975 Weather Reports


time (UTC)temp
C
wind
direction
speed
KPH
gust
KPH
rain 1hr
cm
rain 24hr
cm
rain mn
cm
humidity
%
barometer
mb
20260509201505 32 308 4.8 11.3 0.00 0.00 0.00 49 1008.5
20260509201405 32 302 4.8 11.3 0.00 0.00 0.00 49 1008.5
20260509201305 32 290 4.8 11.3 0.00 0.00 0.00 49 1008.5
20260509201205 32 271 4.8 11.3 0.00 0.00 0.00 48 1008.5
20260509201005 32 256 4.8 11.3 0.00 0.00 0.00 48 1008.5
20260509200904 31 247 4.8 11.3 0.00 0.00 0.00 48 1008.4
20260509200805 31 240 4.8 11.3 0.00 0.00 0.00 49 1008.5
20260509200706 32 239 6.4 11.3 0.00 0.00 0.00 49 1008.5
20260509200605 32 244 6.4 11.3 0.00 0.00 0.00 49 1008.5
20260509200505 32 255 4.8 11.3 0.00 0.00 0.00 49 1008.6
20260509200405 32 252 4.8 11.3 0.00 0.00 0.00 49 1008.5
20260509200105 32 253 6.4 20.9 0.00 0.00 0.00 49 1008.6
20260509200006 32 249 6.4 20.9 0.00 0.00 0.00 49 1008.5
20260509195904 32 246 6.4 20.9 0.00 0.00 0.00 50 1008.5
20260509195805 32 242 6.4 20.9 0.00 0.00 0.00 50 1008.5
20260509195704 32 239 6.4 20.9 0.00 0.00 0.00 50 1008.5
20260509195605 32 231 6.4 20.9 0.00 0.00 0.00 50 1008.5
20260509195505 32 218 6.4 20.9 0.00 0.00 0.00 53 1008.5
20260509195405 31 218 6.4 20.9 0.00 0.00 0.00 51 1008.5
20260509195205 31 212 6.4 12.9 0.00 0.00 0.00 52 1008.6
20260509195105 31 210 6.4 12.9 0.00 0.00 0.00 52 1008.6
20260509195005 31 207 6.4 16.1 0.00 0.00 0.00 50 1008.6
20260509194905 31 205 6.4 16.1 0.00 0.00 0.00 53 1008.6
20260509194805 31 209 8.0 16.1 0.00 0.00 0.00 51 1008.6
20260509194704 31 211 8.0 16.1 0.00 0.00 0.00 51 1008.6
20260509194605 31 213 8.0 16.1 0.00 0.00 0.00 51 1008.6
20260509194405 31 216 8.0 16.1 0.00 0.00 0.00 50 1008.7
20260509194305 31 215 8.0 16.1 0.00 0.00 0.00 51 1008.7
20260509194205 31 213 6.4 16.1 0.00 0.00 0.00 51 1008.7
20260509194105 31 211 6.4 16.1 0.00 0.00 0.00 51 1008.7
20260509194005 31 211 6.4 16.1 0.00 0.00 0.00 50 1008.7
20260509193904 31 215 4.8 16.1 0.00 0.00 0.00 48 1008.7
20260509193805 31 217 4.8 16.1 0.00 0.00 0.00 51 1008.8
20260509193505 31 240 3.2 14.5 0.00 0.00 0.00 52 1008.8
20260509193405 31 269 4.8 12.9 0.00 0.00 0.00 51 1008.8
20260509193305 31 287 4.8 14.5 0.00 0.00 0.00 50 1008.7
20260509193204 31 290 4.8 14.5 0.00 0.00 0.00 48 1008.7
20260509193105 31 296 4.8 14.5 0.00 0.00 0.00 51 1008.9
20260509193005 31 301 4.8 14.5 0.00 0.00 0.00 51 1008.9
20260509192904 31 305 4.8 14.5 0.00 0.00 0.00 51 1008.9
20260509192806 32 309 4.8 14.5 0.00 0.00 0.00 49 1008.9
20260509192704 31 312 3.2 14.5 0.00 0.00 0.00 51 1008.9
20260509192605 31 317 3.2 14.5 0.00 0.00 0.00 49 1008.9
20260509192404 32 327 3.2 14.5 0.00 0.00 0.00 51 1009.0
20260509192306 31 335 4.8 11.3 0.00 0.00 0.00 50 1008.9
20260509192204 31 327 4.8 14.5 0.00 0.00 0.00 50 1008.9
20260509192004 31 316 6.4 14.5 0.00 0.00 0.00 52 1009.0
20260509191604 31 314 8.0 14.5 0.00 0.00 0.00 52 1009.0
20260509191505 31 312 6.4 14.5 0.00 0.00 0.00 51 1009.1
20260509191404 31 312 6.4 14.5 0.00 0.00 0.00 51 1009.1
20260509191305 31 313 6.4 14.5 0.00 0.00 0.00 51 1009.1
20260509191204 31 322 4.8 12.9 0.00 0.00 0.00 51 1009.1
20260509191105 31 330 4.8 12.9 0.00 0.00 0.00 51 1009.2
20260509191006 31 338 3.2 12.9 0.00 0.00 0.00 51 1009.2
20260509190805 31 4 3.2 8.0 0.00 0.00 0.00 52 1009.2
20260509190705 31 14 3.2 8.0 0.00 0.00 0.00 51 1009.2
20260509190605 31 14 3.2 8.0 0.00 0.00 0.00 51 1009.2
20260509190505 31 20 3.2 8.0 0.00 0.00 0.00 51 1009.2
20260509190305 31 20 3.2 8.0 0.00 0.00 0.00 51 1009.2
20260509190105 31 357 3.2 8.0 0.00 0.00 0.00 50 1009.3
20260509190006 31 336 3.2 8.0 0.00 0.00 0.00 50 1009.3
20260509185905 31 324 3.2 8.0 0.00 0.00 0.00 52 1009.4
20260509185805 31 312 3.2 8.0 0.00 0.00 0.00 52 1009.4
20260509185704 31 292 3.2 8.0 0.00 0.00 0.00 52 1009.4
20260509185605 31 259 3.2 8.0 0.00 0.00 0.00 51 1009.4
20260509185505 31 241 3.2 6.4 0.00 0.00 0.00 53 1009.5
20260509185306 31 238 3.2 6.4 0.00 0.00 0.00 53 1009.5
20260509185204 31 254 3.2 9.7 0.00 0.00 0.00 52 1009.5
20260509185105 31 263 3.2 9.7 0.00 0.00 0.00 53 1009.6
20260509185004 31 263 4.8 9.7 0.00 0.00 0.00 53 1009.5
20260509184804 30 277 6.4 19.3 0.00 0.00 0.00 53 1009.5
20260509184705 30 281 6.4 19.3 0.00 0.00 0.00 53 1009.5
20260509184604 30 286 6.4 19.3 0.00 0.00 0.00 53 1009.5
20260509184505 30 291 6.4 19.3 0.00 0.00 0.00 54 1009.6
20260509184404 30 297 6.4 19.3 0.00 0.00 0.00 52 1009.6
20260509184305 30 300 6.4 19.3 0.00 0.00 0.00 51 1009.6
20260509184204 30 307 6.4 19.3 0.00 0.00 0.00 51 1009.7
20260509183704 30 342 4.8 12.9 0.00 0.00 0.00 53 1009.7
20260509183605 30 341 4.8 14.5 0.00 0.00 0.00 51 1009.6
20260509183504 31 340 6.4 14.5 0.00 0.00 0.00 50 1009.7
20260509183405 31 331 6.4 14.5 0.00 0.00 0.00 51 1009.7
20260509183304 30 326 6.4 14.5 0.00 0.00 0.00 53 1009.7
20260509183204 30 320 6.4 14.5 0.00 0.00 0.00 52 1009.7
20260509183106 30 315 6.4 14.5 0.00 0.00 0.00 50 1009.7
20260509182905 31 307 6.4 14.5 0.00 0.00 0.00 54 1009.7
20260509182804 31 301 6.4 14.5 0.00 0.00 0.00 54 1009.7
20260509182705 31 298 6.4 14.5 0.00 0.00 0.00 53 1009.8
20260509182605 30 293 4.8 14.5 0.00 0.00 0.00 53 1009.8
20260509182505 30 284 4.8 14.5 0.00 0.00 0.00 54 1009.8
20260509182404 30 278 3.2 14.5 0.00 0.00 0.00 53 1009.8
20260509182306 30 255 3.2 11.3 0.00 0.00 0.00 53 1009.8
20260509182204 30 240 4.8 11.3 0.00 0.00 0.00 54 1009.9
20260509182105 30 236 4.8 11.3 0.00 0.00 0.00 54 1009.9
20260509182004 30 234 4.8 11.3 0.00 0.00 0.00 54 1010.0
20260509181905 30 230 4.8 11.3 0.00 0.00 0.00 54 1010.0
20260509181804 30 225 4.8 11.3 0.00 0.00 0.00 54 1009.9
20260509181705 30 220 3.2 11.3 0.00 0.00 0.00 54 1009.9
20260509181604 30 213 4.8 9.7 0.00 0.00 0.00 54 1009.9
20260509181505 30 212 3.2 9.7 0.00 0.00 0.00 52 1010.0
20260509181404 30 212 3.2 9.7 0.00 0.00 0.00 54 1010.0
20260509181305 30 208 3.2 9.7 0.00 0.00 0.00 55 1010.1
20260509181204 30 205 3.2 9.7 0.00 0.00 0.00 55 1010.0
20260509181104 30 210 3.2 9.7 0.00 0.00 0.00 54 1010.0
20260509180905 30 304 3.2 8.0 0.00 0.00 0.00 54 1010.0
20260509180804 30 356 3.2 11.3 0.00 0.00 0.00 54 1010.1
20260509180704 30 9 4.8 11.3 0.00 0.00 0.00 54 1010.1
20260509180605 30 13 4.8 11.3 0.00 0.00 0.00 54 1010.1
20260509180504 30 15 4.8 11.3 0.00 0.00 0.00 53 1010.2
20260509180404 30 16 4.8 11.3 0.00 0.00 0.00 53 1010.2
20260509180304 30 18 4.8 11.3 0.00 0.00 0.00 54 1010.3
20260509180105 30 18 4.8 11.3 0.00 0.00 0.00 55 1010.3
20260509180005 30 16 4.8 11.3 0.00 0.00 0.00 55 1010.3
20260509175904 30 11 4.8 11.3 0.00 0.00 0.00 55 1010.2
20260509175805 29 7 4.8 11.3 0.00 0.00 0.00 55 1010.2
20260509175604 29 354 4.8 9.7 0.00 0.00 0.00 53 1010.2
20260509175505 29 351 4.8 9.7 0.00 0.00 0.00 54 1010.3
20260509175404 29 339 4.8 11.3 0.00 0.00 0.00 54 1010.2
20260509175306 29 331 4.8 11.3 0.00 0.00 0.00 54 1010.2
20260509175204 29 330 4.8 11.3 0.00 0.00 0.00 54 1010.2
20260509175004 30 347 4.8 11.3 0.00 0.00 0.00 53 1010.2
20260509174905 30 350 6.4 12.9 0.00 0.00 0.00 55 1010.3
20260509174804 30 352 6.4 12.9 0.00 0.00 0.00 54 1010.3
20260509174604 30 355 4.8 12.9 0.00 0.00 0.00 54 1010.3
20260509174505 30 351 4.8 12.9 0.00 0.00 0.00 55 1010.3
20260509174404 30 355 4.8 12.9 0.00 0.00 0.00 54 1010.3
20260509174305 30 1 4.8 12.9 0.00 0.00 0.00 54 1010.3
20260509174204 30 12 4.8 12.9 0.00 0.00 0.00 55 1010.4
20260509174004 30 29 4.8 12.9 0.00 0.00 0.00 58 1010.4
20260509173805 30 55 4.8 12.9 0.00 0.00 0.00 58 1010.4
20260509173705 29 58 4.8 12.9 0.00 0.00 0.00 58 1010.4
20260509173604 29 62 4.8 12.9 0.00 0.00 0.00 58 1010.5
20260509173505 29 69 4.8 12.9 0.00 0.00 0.00 56 1010.4
20260509173404 29 71 4.8 12.9 0.00 0.00 0.00 57 1010.4
20260509173305 29 72 4.8 12.9 0.00 0.00 0.00 56 1010.4
20260509173105 29 41 4.8 12.9 0.00 0.00 0.00 56 1010.4
20260509172905 28 356 4.8 12.9 0.00 0.00 0.00 56 1010.5
20260509172804 28 336 4.8 12.9 0.00 0.00 0.00 55 1010.6
20260509172705 28 323 4.8 12.9 0.00 0.00 0.00 59 1010.6
20260509172604 28 315 4.8 11.3 0.00 0.00 0.00 55 1010.6
20260509172505 29 315 4.8 11.3 0.00 0.00 0.00 56 1010.6
20260509172105 29 337 4.8 11.3 0.00 0.00 0.00 56 1010.6
20260509171905 28 13 3.2 11.3 0.00 0.00 0.00 58 1010.7
20260509171704 28 52 3.2 8.0 0.00 0.00 0.00 56 1010.7
20260509171604 28 57 3.2 8.0 0.00 0.00 0.00 55 1010.7
20260509171505 28 53 3.2 8.0 0.00 0.00 0.00 56 1010.7
20260509171304 28 48 3.2 8.0 0.00 0.00 0.00 55 1010.7
20260509171104 28 39 3.2 8.0 0.00 0.00 0.00 58 1010.7
20260509171005 28 32 3.2 8.0 0.00 0.00 0.00 56 1010.7
20260509170804 28 10 3.2 6.4 0.00 0.00 0.00 57 1010.7
20260509170705 29 355 3.2 6.4 0.00 0.00 0.00 57 1010.8
20260509170604 28 330 3.2 8.0 0.00 0.00 0.00 57 1010.8
20260509170505 28 306 3.2 8.0 0.00 0.00 0.00 57 1010.8
20260509170404 28 297 3.2 8.0 0.00 0.00 0.00 57 1010.8
20260509170305 28 243 3.2 8.0 0.00 0.00 0.00 57 1010.8
20260509170204 28 244 3.2 8.0 0.00 0.00 0.00 57 1010.8
20260509170105 28 249 3.2 8.0 0.00 0.00 0.00 55 1010.9
20260509170004 28 262 3.2 8.0 0.00 0.00 0.00 57 1010.8
20260509165905 28 261 3.2 8.0 0.00 0.00 0.00 58 1010.8
20260509165805 28 296 3.2 8.0 0.00 0.00 0.00 58 1010.8
20260509165704 28 321 4.8 8.0 0.00 0.00 0.00 59 1010.8
20260509165605 28 339 4.8 12.9 0.00 0.00 0.00 58 1010.8
20260509165504 28 353 4.8 12.9 0.00 0.00 0.00 54 1010.8
20260509165306 28 352 4.8 12.9 0.00 0.00 0.00 55 1010.8
20260509165204 28 355 4.8 12.9 0.00 0.00 0.00 56 1010.7
20260509165106 28 358 4.8 12.9 0.00 0.00 0.00 55 1010.8
20260509165004 28 2 6.4 12.9 0.00 0.00 0.00 56 1010.7
20260509164905 28 7 6.4 12.9 0.00 0.00 0.00 57 1010.8
20260509164804 28 11 4.8 12.9 0.00 0.00 0.00 58 1010.8
20260509164705 28 18 4.8 12.9 0.00 0.00 0.00 58 1010.8
20260509164505 28 22 4.8 12.9 0.00 0.00 0.00 58 1010.8
20260509164304 28 23 4.8 12.9 0.00 0.00 0.00 58 1010.8
20260509164205 28 23 4.8 12.9 0.00 0.00 0.00 58 1010.9
20260509164104 28 26 4.8 12.9 0.00 0.00 0.00 58 1010.9
20260509164005 28 25 4.8 12.9 0.00 0.00 0.00 58 1010.8
20260509163905 28 27 4.8 12.9 0.00 0.00 0.00 58 1010.8
20260509163804 28 32 4.8 12.9 0.00 0.00 0.00 57 1010.9
20260509163705 28 32 4.8 12.9 0.00 0.00 0.00 58 1010.8
20260509163604 28 35 4.8 16.1 0.00 0.00 0.00 59 1010.8
20260509163505 28 33 6.4 16.1 0.00 0.00 0.00 58 1010.8
20260509163404 28 27 6.4 16.1 0.00 0.00 0.00 58 1010.8
20260509163304 28 23 6.4 16.1 0.00 0.00 0.00 60 1010.9
20260509163204 28 22 6.4 16.1 0.00 0.00 0.00 59 1010.8
20260509163104 27 20 8.0 16.1 0.00 0.00 0.00 59 1010.8
20260509163005 27 23 6.4 16.1 0.00 0.00 0.00 57 1010.8
20260509162904 27 22 6.4 16.1 0.00 0.00 0.00 56 1010.9
20260509162704 28 25 6.4 16.1 0.00 0.00 0.00 57 1010.8
20260509162604 28 22 6.4 14.5 0.00 0.00 0.00 56 1010.8
20260509162504 28 24 6.4 14.5 0.00 0.00 0.00 54 1010.8
20260509162404 28 28 6.4 14.5 0.00 0.00 0.00 55 1010.8
20260509162206 28 33 6.4 14.5 0.00 0.00 0.00 54 1010.8
20260509162104 28 32 6.4 14.5 0.00 0.00 0.00 56 1010.7
20260509161905 28 24 6.4 17.7 0.00 0.00 0.00 58 1010.7
20260509161704 28 8 6.4 17.7 0.00 0.00 0.00 58 1010.7
20260509161605 28 359 8.0 17.7 0.00 0.00 0.00 56 1010.7
20260509161504 28 354 8.0 19.3 0.00 0.00 0.00 58 1010.6
20260509161405 27 348 8.0 19.3 0.00 0.00 0.00 59 1010.6
20260509161304 27 340 8.0 19.3 0.00 0.00 0.00 58 1010.6
20260509161205 27 338 8.0 19.3 0.00 0.00 0.00 57 1010.7
20260509161104 27 339 8.0 19.3 0.00 0.00 0.00 57 1010.8
20260509161006 27 337 8.0 19.3 0.00 0.00 0.00 57 1010.7
20260509160904 27 339 8.0 19.3 0.00 0.00 0.00 58 1010.6
20260509160804 27 344 8.0 19.3 0.00 0.00 0.00 58 1010.6
20260509160704 27 348 9.7 19.3 0.00 0.00 0.00 58 1010.6
20260509160605 28 352 9.7 19.3 0.00 0.00 0.00 58 1010.6
20260509160504 28 355 8.0 19.3 0.00 0.00 0.00 59 1010.6
20260509160405 27 2 8.0 19.3 0.00 0.00 0.00 59 1010.6
20260509160205 27 9 8.0 19.3 0.00 0.00 0.00 57 1010.5
20260509160104 27 6 9.7 20.9 0.00 0.00 0.00 59 1010.5
20260509160005 27 7 8.0 20.9 0.00 0.00 0.00 59 1010.5
20260509155904 27 7 8.0 20.9 0.00 0.00 0.00 58 1010.5
20260509155804 27 2 8.0 20.9 0.00 0.00 0.00 60 1010.6
20260509155705 27 355 8.0 20.9 0.00 0.00 0.00 59 1010.6
20260509155604 27 355 8.0 20.9 0.00 0.00 0.00 61 1010.5
20260509155504 27 356 8.0 20.9 0.00 0.00 0.00 62 1010.5
20260509155404 27 359 8.0 20.9 0.00 0.00 0.00 61 1010.5
20260509155306 27 2 8.0 20.9 0.00 0.00 0.00 63 1010.5
20260509155204 27 2 8.0 20.9 0.00 0.00 0.00 63 1010.5
20260509155104 27 9 8.0 16.1 0.00 0.00 0.00 63 1010.5
20260509155004 27 11 8.0 16.1 0.00 0.00 0.00 67 1010.6
20260509154804 27 18 8.0 16.1 0.00 0.00 0.00 68 1010.5
20260509154605 27 22 8.0 16.1 0.00 0.00 0.00 68 1010.6
20260509154504 27 24 8.0 16.1 0.00 0.00 0.00 68 1010.6
20260509154404 26 21 8.0 16.1 0.00 0.00 0.00 68 1010.6
20260509154205 27 18 6.4 16.1 0.00 0.00 0.00 68 1010.7
20260509154104 27 17 6.4 16.1 0.00 0.00 0.00 68 1010.7
20260509154004 27 20 6.4 14.5 0.00 0.00 0.00 69 1010.7
20260509153904 27 20 6.4 14.5 0.00 0.00 0.00 70 1010.7
20260509153805 27 22 6.4 16.1 0.00 0.00 0.00 70 1010.7
20260509153704 27 25 6.4 16.1 0.00 0.00 0.00 72 1010.6
20260509153604 27 23 6.4 16.1 0.00 0.00 0.00 72 1010.6
20260509153505 26 20 6.4 16.1 0.00 0.00 0.00 72 1010.6
20260509153404 26 20 6.4 16.1 0.00 0.00 0.00 72 1010.6
20260509153304 26 18 6.4 16.1 0.00 0.00 0.00 72 1010.7
20260509153204 26 19 6.4 16.1 0.00 0.00 0.00 73 1010.7
20260509153004 26 15 6.4 16.1 0.00 0.00 0.00 71 1010.7
20260509152904 26 12 6.4 16.1 0.00 0.00 0.00 72 1010.7
20260509152804 26 8 6.4 16.1 0.00 0.00 0.00 72 1010.7
20260509152705 26 7 6.4 16.1 0.00 0.00 0.00 72 1010.7
20260509152604 26 5 6.4 16.1 0.00 0.00 0.00 74 1010.6
20260509152405 26 7 6.4 19.3 0.00 0.00 0.00 74 1010.6
20260509152306 26 11 6.4 19.3 0.00 0.00 0.00 74 1010.6
20260509152204 26 13 6.4 19.3 0.00 0.00 0.00 75 1010.6
20260509152104 26 18 6.4 19.3 0.00 0.00 0.00 75 1010.6
20260509152005 26 21 6.4 19.3 0.00 0.00 0.00 76 1010.6
20260509151805 26 28 8.0 19.3 0.00 0.00 0.00 76 1010.7
20260509151704 26 28 8.0 19.3 0.00 0.00 0.00 75 1010.7
20260509151605 26 34 6.4 19.3 0.00 0.00 0.00 75 1010.7
20260509151505 26 37 6.4 14.5 0.00 0.00 0.00 77 1010.7
20260509151404 25 36 6.4 14.5 0.00 0.00 0.00 78 1010.7
20260509151305 25 35 6.4 14.5 0.00 0.00 0.00 78 1010.6
20260509151205 25 32 6.4 14.5 0.00 0.00 0.00 78 1010.7
20260509151105 25 29 6.4 14.5 0.00 0.00 0.00 78 1010.7
20260509151004 25 29 6.4 14.5 0.00 0.00 0.00 78 1010.7
20260509150704 25 28 4.8 14.5 0.00 0.00 0.00 78 1010.7
20260509150505 25 35 4.8 14.5 0.00 0.00 0.00 77 1010.7
20260509150404 25 36 4.8 14.5 0.00 0.00 0.00 77 1010.8
20260509150305 25 37 4.8 14.5 0.00 0.00 0.00 77 1010.7
20260509150105 25 37 4.8 12.9 0.00 0.00 0.00 77 1010.7
20260509150004 25 37 4.8 12.9 0.00 0.00 0.00 78 1010.6
20260509145904 25 36 4.8 12.9 0.00 0.00 0.00 78 1010.6
20260509145804 25 31 4.8 12.9 0.00 0.00 0.00 78 1010.6
20260509145705 25 27 4.8 12.9 0.00 0.00 0.00 78 1010.6
20260509145604 25 13 4.8 12.9 0.00 0.00 0.00 77 1010.6
20260509145504 25 1 4.8 11.3 0.00 0.00 0.00 77 1010.6
20260509145404 25 359 4.8 11.3 0.00 0.00 0.00 77 1010.5
20260509145306 25 359 4.8 11.3 0.00 0.00 0.00 77 1010.5
20260509145105 25 359 4.8 14.5 0.00 0.00 0.00 77 1010.5
20260509145004 25 358 4.8 14.5 0.00 0.00 0.00 77 1010.4
20260509144405 25 13 4.8 14.5 0.00 0.00 0.00 78 1010.3
20260509144304 25 9 4.8 14.5 0.00 0.00 0.00 78 1010.3
20260509144205 25 11 4.8 14.5 0.00 0.00 0.00 81 1010.3
20260509144004 25 8 6.4 16.1 0.00 0.00 0.00 81 1010.1
20260509143905 25 3 6.4 16.1 0.00 0.00 0.00 81 1010.2
20260509143804 25 357 6.4 16.1 0.00 0.00 0.00 79 1010.2
20260509143706 25 351 6.4 16.1 0.00 0.00 0.00 79 1010.2
20260509143604 25 350 6.4 16.1 0.00 0.00 0.00 80 1010.2
20260509143505 25 349 6.4 16.1 0.00 0.00 0.00 79 1010.1
20260509143404 25 347 4.8 16.1 0.00 0.00 0.00 79 1010.1
20260509143305 25 349 4.8 16.1 0.00 0.00 0.00 79 1010.1
20260509143204 25 350 4.8 16.1 0.00 0.00 0.00 80 1010.0
20260509143105 25 351 4.8 16.1 0.00 0.00 0.00 80 1009.9
20260509143004 25 348 3.2 12.9 0.00 0.00 0.00 80 1009.9
20260509142905 25 350 3.2 12.9 0.00 0.00 0.00 79 1009.8
20260509142804 25 354 3.2 11.3 0.00 0.00 0.00 79 1009.8
20260509142705 25 359 3.2 11.3 0.00 0.00 0.00 79 1009.8
20260509142604 25 2 3.2 11.3 0.00 0.00 0.00 80 1009.8
20260509142404 25 359 4.8 11.3 0.00 0.00 0.00 83 1009.8
20260509142307 24 359 4.8 17.7 0.00 0.00 0.00 83 1009.8
20260509142205 24 356 4.8 17.7 0.00 0.00 0.00 82 1009.8
20260509142004 24 358 6.4 17.7 0.00 0.00 0.00 82 1009.7
20260509141904 24 4 6.4 17.7 0.00 0.00 0.00 83 1009.7
20260509141804 24 5 6.4 17.7 0.00 0.00 0.00 83 1009.7
20260509141505 24 355 6.4 17.7 0.00 0.00 0.00 83 1009.9
20260509141404 24 351 6.4 17.7 0.00 0.00 0.00 85 1009.9
20260509141304 24 347 4.8 14.5 0.00 0.00 0.00 85 1009.9
20260509141004 23 346 4.8 14.5 0.00 0.00 0.00 85 1009.9
20260509140904 23 347 4.8 19.3 0.00 0.00 0.00 85 1009.8
20260509140804 23 351 4.8 19.3 0.00 0.00 0.00 85 1009.7
20260509140704 23 356 4.8 19.3 0.00 0.00 0.00 85 1009.6
20260509140604 23 2 6.4 19.3 0.00 0.00 0.00 84 1009.5
20260509140504 23 7 6.4 19.3 0.00 0.00 0.00 84 1009.5
20260509140304 23 8 8.0 19.3 0.00 0.00 0.00 84 1009.5
20260509140204 23 7 8.0 19.3 0.00 0.00 0.00 84 1009.7
20260509140105 23 6 8.0 19.3 0.00 0.00 0.00 84 1009.8
20260509140006 23 4 8.0 19.3 0.00 0.00 0.00 84 1009.8
20260509135904 23 358 6.4 19.3 0.00 0.00 0.00 84 1009.8
20260509135804 23 347 6.4 19.3 0.00 0.00 0.00 85 1009.8
20260509135504 23 296 4.8 17.7 0.00 0.00 0.00 85 1009.6
20260509135404 23 281 4.8 14.5 0.00 0.00 0.00 86 1009.4
20260509135306 23 270 4.8 9.7 0.00 0.00 0.00 86 1009.2
20260509135204 23 270 4.8 9.7 0.00 0.00 0.00 86 1009.1
20260509135104 23 278 4.8 12.9 0.00 0.00 0.00 87 1009.1
20260509135004 23 286 4.8 12.9 0.00 0.00 0.00 87 1009.0
20260509134904 23 292 4.8 12.9 0.00 0.00 0.00 87 1009.1
20260509134804 23 293 4.8 12.9 0.00 0.00 0.00 87 1009.1
20260509134704 23 298 4.8 12.9 0.00 0.00 0.00 87 1009.1
20260509134504 22 291 6.4 12.9 0.00 0.00 0.00 88 1009.1
20260509134404 22 281 6.4 12.9 0.00 0.00 0.00 87 1009.1
20260509134304 22 270 6.4 12.9 0.00 0.00 0.00 87 1009.1
20260509134204 22 259 8.0 16.1 0.00 0.00 0.00 87 1009.0
20260509134104 22 247 8.0 22.5 0.00 0.00 0.00 86 1008.9
20260509134005 23 238 9.7 22.5 0.00 0.00 0.00 86 1008.9
20260509133904 23 232 9.7 22.5 0.00 0.00 0.00 87 1008.8
20260509133704 23 222 9.7 22.5 0.00 0.00 0.00 87 1008.7
20260509133604 22 221 11.3 22.5 0.00 0.00 0.00 88 1008.6
20260509133504 22 220 11.3 22.5 0.00 0.00 0.00 88 1008.6
20260509133404 22 219 11.3 22.5 0.00 0.00 0.00 88 1008.5
20260509133204 22 219 12.9 22.5 0.00 0.00 0.00 89 1008.4
20260509133104 22 218 12.9 24.1 0.00 0.00 0.00 89 1008.4
20260509133005 22 218 12.9 24.1 0.00 0.00 0.00 89 1008.3
20260509132904 22 217 11.3 24.1 0.00 0.00 0.00 89 1008.3
20260509132804 22 218 11.3 24.1 0.00 0.00 0.00 89 1008.3
20260509132704 22 217 12.9 24.1 0.00 0.00 0.00 90 1008.3
20260509132604 22 218 12.9 24.1 0.00 0.00 0.00 90 1008.4
20260509132504 22 218 11.3 24.1 0.00 0.00 0.00 90 1008.3
20260509132404 22 218 11.3 24.1 0.00 0.00 0.00 90 1008.3
20260509132306 22 217 11.3 24.1 0.00 0.00 0.00 90 1008.4
20260509132204 22 216 11.3 24.1 0.00 0.00 0.00 91 1008.4
20260509132105 22 215 9.7 19.3 0.00 0.00 0.00 91 1008.5
20260509131906 22 214 9.7 19.3 0.00 0.00 0.00 91 1008.5
20260509131804 21 212 9.7 19.3 0.00 0.00 0.00 91 1008.6
20260509131704 21 213 9.7 19.3 0.00 0.00 0.00 92 1008.6
20260509131605 21 212 9.7 16.1 0.00 0.00 0.00 92 1008.6
20260509131504 21 213 9.7 14.5 0.00 0.00 0.00 92 1008.5
20260509131404 21 215 8.0 14.5 0.00 0.00 0.00 92 1008.6
20260509131304 21 218 8.0 14.5 0.00 0.00 0.00 92 1008.6
20260509131204 21 221 8.0 14.5 0.00 0.00 0.00 93 1008.6
20260509131003 21 234 8.0 14.5 0.00 0.00 0.00 93 1008.6
20260509130904 21 242 8.0 14.5 0.00 0.00 0.00 93 1008.6
20260509130804 21 252 8.0 14.5 0.00 0.00 0.00 93 1008.7
20260509130704 21 256 8.0 14.5 0.00 0.00 0.00 93 1008.7
20260509130603 21 259 8.0 14.5 0.00 0.00 0.00 93 1008.7
20260509130504 21 259 8.0 14.5 0.00 0.00 0.00 93 1008.7
20260509130403 21 259 8.0 14.5 0.00 0.00 0.00 93 1008.7
20260509130304 21 255 8.0 14.5 0.00 0.00 0.00 93 1008.7
20260509130104 21 241 8.0 16.1 0.00 0.00 0.00 94 1008.8
20260509130004 21 232 8.0 16.1 0.00 0.00 0.00 94 1008.7
20260509125904 21 221 8.0 17.7 0.00 0.00 0.00 94 1008.7
20260509125704 21 211 9.7 17.7 0.00 0.00 0.00 94 1008.7
20260509125604 21 210 9.7 17.7 0.00 0.00 0.00 94 1008.7
20260509125504 21 208 9.7 17.7 0.00 0.00 0.00 94 1008.6
20260509125307 20 207 8.0 17.7 0.00 0.00 0.00 94 1008.6
20260509125204 20 208 8.0 17.7 0.00 0.00 0.00 94 1008.6
20260509125104 20 210 8.0 17.7 0.00 0.00 0.00 94 1008.6
20260509124906 20 212 6.4 14.5 0.00 0.00 0.00 94 1008.5
20260509124804 20 213 6.4 14.5 0.00 0.00 0.00 94 1008.5
20260509124704 20 213 6.4 14.5 0.00 0.00 0.00 94 1008.5
20260509124604 20 213 6.4 14.5 0.00 0.00 0.00 94 1008.5
20260509124504 20 212 6.4 14.5 0.00 0.00 0.00 94 1008.5
20260509124404 20 211 6.4 14.5 0.00 0.00 0.00 94 1008.4
20260509124304 20 209 6.4 14.5 0.00 0.00 0.00 94 1008.4
20260509124204 20 207 6.4 14.5 0.00 0.00 0.00 94 1008.4
20260509124104 20 206 8.0 16.1 0.00 0.00 0.00 94 1008.4
20260509123905 20 203 8.0 16.1 0.00 0.00 0.00 94 1008.4
20260509123804 20 201 8.0 16.1 0.00 0.00 0.00 94 1008.3
20260509123705 20 199 8.0 16.1 0.00 0.00 0.00 94 1008.3
20260509123604 20 198 9.7 16.1 0.00 0.00 0.00 94 1008.3
20260509123304 20 194 9.7 19.3 0.00 0.00 0.00 94 1008.4
20260509123005 19 191 11.3 20.9 0.00 0.00 0.00 94 1008.4
20260509122904 19 190 11.3 20.9 0.00 0.00 0.00 94 1008.4
20260509122704 19 190 12.9 22.5 0.00 0.00 0.00 94 1008.4
20260509122604 19 188 12.9 22.5 0.00 0.00 0.00 94 1008.4
20260509122505 19 187 12.9 22.5 0.00 0.00 0.00 94 1008.4
20260509122404 19 185 12.9 22.5 0.00 0.00 0.00 94 1008.4
20260509122306 19 184 12.9 22.5 0.00 0.00 0.00 94 1008.4
20260509122204 19 183 12.9 22.5 0.00 0.00 0.00 94 1008.4
20260509122104 19 183 12.9 22.5 0.00 0.00 0.00 94 1008.4
20260509122004 19 181 11.3 22.5 0.00 0.00 0.00 94 1008.4
20260509121904 19 181 12.9 22.5 0.00 0.00 0.00 94 1008.4
20260509121804 19 179 12.9 22.5 0.00 0.00 0.00 94 1008.4
20260509121704 19 179 12.9 19.3 0.00 0.00 0.00 94 1008.4
20260509121604 19 179 12.9 19.3 0.00 0.00 0.00 94 1008.5
20260509121304 18 182 11.3 19.3 0.00 0.00 0.00 94 1008.5
20260509121204 18 183 11.3 19.3 0.00 0.00 0.00 94 1008.4
20260509121004 18 184 9.7 19.3 0.00 0.00 0.00 94 1008.3
20260509120904 19 184 9.7 19.3 0.00 0.00 0.00 94 1008.4
20260509120806 18 184 8.0 19.3 0.00 0.00 0.00 94 1008.4
20260509120704 18 183 8.0 16.1 0.00 0.00 0.00 94 1008.4
20260509120603 18 182 6.4 16.1 0.00 0.00 0.00 94 1008.3
20260509120504 18 185 4.8 16.1 0.00 0.00 0.00 94 1008.4
20260509120404 19 188 4.8 14.5 0.00 0.00 0.00 94 1008.4
20260509120304 19 191 4.8 11.3 0.00 0.00 0.00 94 1008.5
20260509120203 19 195 4.8 11.3 0.00 0.00 0.00 94 1008.5
20260509120104 19 196 4.8 11.3 0.00 0.00 0.00 94 1008.6
20260509120005 19 199 4.8 17.7 0.00 0.00 0.00 94 1008.7
20260509115704 19 202 6.4 17.7 0.00 0.00 0.00 94 1008.9
20260509115604 19 202 8.0 17.7 0.00 0.00 0.00 94 1008.9
20260509115504 19 201 8.0 17.7 0.00 0.00 0.00 94 1008.9
20260509115404 19 198 9.7 17.7 0.00 0.00 0.00 94 1008.9
20260509115306 19 197 9.7 17.7 0.00 0.00 0.00 94 1008.9
20260509115104 19 195 9.7 17.7 0.00 0.00 0.00 94 1008.9
20260509115004 18 194 9.7 16.1 0.00 0.00 0.00 94 1008.8
20260509114905 18 194 8.0 16.1 0.00 0.00 0.00 94 1008.8
20260509114803 18 193 8.0 16.1 0.00 0.00 0.00 94 1008.8
20260509114704 19 194 8.0 16.1 0.00 0.00 0.00 94 1008.8
20260509114604 19 195 8.0 16.1 0.00 0.00 0.00 94 1008.8
20260509114504 19 197 8.0 14.5 0.00 0.00 0.00 94 1008.8
20260509114404 19 200 6.4 14.5 0.00 0.00 0.00 94 1008.9
20260509114304 19 203 6.4 14.5 0.00 0.00 0.00 94 1008.9
20260509114104 19 207 6.4 14.5 0.00 0.00 0.00 94 1008.9
20260509114004 19 209 6.4 12.9 0.00 0.00 0.00 94 1008.9
20260509113904 19 211 6.4 9.7 0.00 0.00 0.00 94 1008.9
20260509113804 19 213 6.4 9.7 0.00 0.00 0.00 94 1008.9
20260509113704 19 214 6.4 9.7 0.00 0.00 0.00 94 1008.9
20260509113604 19 216 6.4 9.7 0.00 0.00 0.00 94 1008.9
20260509113505 18 217 4.8 9.7 0.00 0.00 0.00 94 1008.9
20260509113404 18 217 6.4 9.7 0.00 0.00 0.00 94 1008.9
20260509113304 18 217 6.4 9.7 0.00 0.00 0.00 94 1009.0
20260509112704 18 221 4.8 9.7 0.00 0.03 0.00 94 1009.1
20260509112504 18 222 4.8 9.7 0.00 0.03 0.00 94 1009.3
20260509112404 18 225 4.8 9.7 0.00 0.03 0.00 94 1009.4
20260509112306 18 227 4.8 9.7 0.00 0.05 0.00 94 1009.4
20260509112204 18 229 4.8 9.7 0.00 0.05 0.00 94 1009.5
20260509112104 19 231 4.8 9.7 0.00 0.05 0.00 94 1009.6
20260509112004 19 232 4.8 9.7 0.00 0.05 0.00 94 1009.7
20260509111904 19 233 3.2 9.7 0.00 0.08 0.00 94 1009.7
20260509111804 19 234 3.2 9.7 0.00 0.08 0.00 94 1009.7
20260509111704 19 235 3.2 8.0 0.00 0.08 0.00 94 1009.8
20260509111604 19 238 3.2 8.0 0.00 0.10 0.00 94 1009.9
20260509111504 19 240 3.2 8.0 0.00 0.13 0.00 94 1010.0
20260509111404 19 245 3.2 8.0 0.00 0.13 0.00 94 1010.0
20260509111204 19 256 3.2 8.0 0.00 0.13 0.00 94 1010.1
20260509111004 19 267 4.8 12.9 0.00 0.15 0.00 94 1010.2
20260509110904 19 271 4.8 12.9 0.00 0.15 0.00 94 1010.2
20260509110804 19 277 4.8 12.9 0.00 0.15 0.00 94 1010.3
20260509110603 19 285 6.4 12.9 0.00 0.15 0.00 94 1010.3
20260509110504 19 289 8.0 12.9 0.00 0.15 0.00 94 1010.3
20260509110304 19 295 8.0 16.1 0.00 0.15 0.00 94 1010.5
20260509110204 19 299 9.7 16.1 0.00 0.15 0.00 94 1010.5
20260509110104 19 301 9.7 16.1 0.00 0.15 0.00 94 1010.6
20260509105904 19 304 9.7 16.1 0.00 0.15 0.00 94 1010.6
20260509105804 19 305 9.7 16.1 0.00 0.15 0.00 94 1010.7
20260509105704 19 307 9.7 16.1 0.00 0.15 0.00 94 1010.7
20260509105604 19 307 9.7 16.1 0.00 0.15 0.00 94 1010.8
20260509105504 19 308 11.3 16.1 0.00 0.15 0.00 94 1010.8
20260509105306 19 308 9.7 16.1 0.00 0.15 0.00 94 1011.0
20260509105104 19 306 9.7 17.7 0.00 0.15 0.00 94 1011.2
20260509105004 19 305 9.7 17.7 0.00 0.15 0.00 94 1011.2
20260509104905 20 303 9.7 17.7 0.00 0.15 0.00 94 1011.2
20260509104803 20 301 9.7 17.7 0.00 0.15 0.00 94 1011.2
20260509104604 20 299 9.7 17.7 0.00 0.15 0.00 94 1011.2
20260509104405 19 296 9.7 17.7 0.00 0.15 0.00 94 1011.1
20260509104304 20 297 9.7 17.7 0.00 0.15 0.00 94 1011.1
20260509104203 20 297 9.7 16.1 0.00 0.15 0.00 94 1011.1
20260509104108 20 298 9.7 16.1 0.00 0.15 0.00 94 1011.1
20260509103904 20 300 9.7 16.1 0.00 0.15 0.00 94 1011.2
20260509103805 20 302 9.7 19.3 0.00 0.15 0.00 94 1011.2
20260509103704 20 304 9.7 19.3 0.00 0.15 0.00 94 1011.3
20260509103605 20 306 11.3 19.3 0.00 0.15 0.00 94 1011.3
20260509103404 20 309 11.3 19.3 0.00 0.15 0.00 94 1011.3
20260509103304 20 310 11.3 19.3 0.00 0.15 0.00 94 1011.3
20260509103204 20 311 11.3 19.3 0.00 0.15 0.00 94 1011.3
20260509103103 20 312 11.3 19.3 0.00 0.15 0.00 94 1011.3
20260509103004 20 314 11.3 19.3 0.00 0.15 0.00 94 1011.2
20260509102904 20 314 11.3 19.3 0.00 0.15 0.00 94 1011.3
20260509102804 20 314 9.7 19.3 0.00 0.15 0.00 94 1011.2
20260509102705 20 314 9.7 19.3 0.00 0.15 0.00 94 1011.2
20260509102604 20 314 9.7 19.3 0.00 0.15 0.00 94 1011.3
20260509102504 20 315 8.0 19.3 0.00 0.15 0.00 94 1011.3
20260509102204 19 312 6.4 14.5 0.00 0.15 0.00 94 1011.2
20260509102004 19 309 6.4 14.5 0.00 0.15 0.00 94 1011.1
20260509101904 19 308 4.8 14.5 0.00 0.15 0.00 94 1011.1
20260509101803 19 307 4.8 14.5 0.00 0.15 0.00 94 1010.9
20260509101704 19 305 4.8 9.7 0.00 0.15 0.00 94 1010.9
20260509101604 19 304 4.8 9.7 0.00 0.15 0.00 94 1010.9
20260509101504 19 303 4.8 9.7 0.00 0.15 0.00 94 1010.9
20260509101404 19 301 4.8 9.7 0.00 0.15 0.00 94 1010.9
20260509101304 19 301 4.8 9.7 0.00 0.15 0.00 94 1010.8
20260509101204 19 302 4.8 9.7 0.00 0.15 0.00 94 1010.8
20260509101104 19 303 4.8 9.7 0.00 0.15 0.00 94 1010.8
20260509101004 19 304 4.8 9.7 0.00 0.15 0.00 94 1010.8
20260509100904 19 305 4.8 6.4 0.00 0.15 0.00 94 1010.8
20260509100805 19 305 3.2 6.4 0.00 0.15 0.00 94 1010.8
20260509100703 19 308 3.2 4.8 0.00 0.15 0.00 94 1010.7
20260509100604 19 315 3.2 4.8 0.00 0.15 0.00 94 1010.7
20260509100404 19 327 3.2 4.8 0.00 0.15 0.00 94 1010.7
20260509100303 19 331 3.2 4.8 0.00 0.15 0.00 94 1010.7
20260509100204 19 335 3.2 4.8 0.00 0.15 0.00 94 1010.7
20260509100104 19 338 3.2 4.8 0.00 0.15 0.00 94 1010.6
20260509100004 19 344 1.6 4.8 0.00 0.15 0.00 94 1010.5
20260509095904 19 354 1.6 4.8 0.00 0.15 0.00 94 1010.5
20260509095803 19 5 1.6 4.8 0.00 0.15 0.00 94 1010.4
20260509095504 19 11 1.6 3.2 0.00 0.15 0.00 94 1010.3
20260509095404 19 11 1.6 3.2 0.00 0.15 0.00 94 1010.3
20260509095306 19 11 1.6 3.2 0.00 0.15 0.00 94 1010.3
20260509095204 19 11 0.0 3.2 0.00 0.15 0.00 94 1010.3
20260509095004 19 11 0.0 3.2 0.00 0.15 0.00 94 1010.2
20260509094903 19 11 0.0 3.2 0.00 0.15 0.00 94 1010.3
20260509094804 19 11 0.0 3.2 0.00 0.15 0.00 94 1010.2
20260509094604 19 11 0.0 1.6 0.00 0.15 0.00 94 1010.3
20260509094504 19 11 1.6 1.6 0.00 0.15 0.00 94 1010.3
20260509094404 19 11 1.6 1.6 0.00 0.15 0.00 94 1010.3
20260509094203 19 11 1.6 1.6 0.00 0.15 0.00 94 1010.3
20260509094104 19 11 1.6 1.6 0.00 0.15 0.00 94 1010.3
20260509093904 19 11 1.6 3.2 0.00 0.15 0.00 94 1010.2
20260509093804 19 11 1.6 3.2 0.00 0.15 0.00 94 1010.1
20260509093705 19 11 1.6 3.2 0.00 0.15 0.00 94 1010.1
20260509093604 19 11 1.6 3.2 0.00 0.15 0.00 94 1010.0
20260509093504 19 11 1.6 3.2 0.00 0.15 0.00 94 1010.1
20260509093404 19 11 1.6 3.2 0.00 0.15 0.00 94 1010.1
20260509093304 19 11 1.6 3.2 0.00 0.15 0.00 94 1010.0
20260509093204 19 11 1.6 3.2 0.00 0.15 0.00 94 1010.0
20260509093104 19 11 1.6 4.8 0.00 0.15 0.00 94 1010.1
20260509093004 19 12 1.6 4.8 0.00 0.15 0.00 94 1010.1
20260509092904 19 9 1.6 4.8 0.00 0.15 0.00 94 1010.0
20260509092804 19 12 1.6 6.4 0.00 0.15 0.00 94 1010.1
20260509092704 20 13 3.2 6.4 0.00 0.15 0.00 94 1010.1
20260509092604 20 13 3.2 6.4 0.00 0.15 0.00 94 1010.2
20260509092504 20 12 3.2 6.4 0.00 0.15 0.00 94 1010.2
20260509092404 20 10 3.2 6.4 0.00 0.15 0.00 94 1010.3
20260509092305 20 9 3.2 6.4 0.00 0.15 0.00 94 1010.3
20260509092204 19 9 3.2 6.4 0.00 0.15 0.00 94 1010.3
20260509092104 19 8 1.6 6.4 0.00 0.15 0.00 94 1010.4
20260509092004 19 6 1.6 6.4 0.00 0.15 0.00 94 1010.4
20260509091704 19 357 1.6 4.8 0.00 0.15 0.00 94 1010.3
20260509091605 19 353 1.6 4.8 0.00 0.15 0.00 94 1010.3
20260509091504 19 351 1.6 4.8 0.00 0.15 0.00 94 1010.2
20260509091403 20 351 0.0 3.2 0.00 0.15 0.00 94 1010.1
20260509091304 20 351 0.0 3.2 0.00 0.15 0.00 94 1010.1
20260509091204 20 351 0.0 3.2 0.00 0.15 0.00 94 1010.1
20260509091104 20 351 0.0 3.2 0.00 0.15 0.00 94 1010.0
20260509091004 20 351 1.6 3.2 0.00 0.15 0.00 94 1010.0
20260509090903 20 353 1.6 3.2 0.00 0.15 0.00 94 1010.1
20260509090804 20 357 1.6 4.8 0.00 0.15 0.00 94 1010.1
20260509090703 20 359 1.6 6.4 0.00 0.15 0.00 94 1010.1
20260509090604 20 1 1.6 6.4 0.00 0.15 0.00 94 1010.2
20260509090505 20 3 1.6 6.4 0.00 0.15 0.00 94 1010.2
20260509090404 20 3 3.2 6.4 0.00 0.15 0.00 94 1010.2
20260509090303 20 4 3.2 8.0 0.00 0.15 0.00 94 1010.3
20260509090204 20 5 3.2 8.0 0.00 0.15 0.00 94 1010.3
20260509090005 19 7 3.2 8.0 0.00 0.15 0.00 94 1010.3
20260509085804 19 2 3.2 8.0 0.00 0.15 0.00 94 1010.4
20260509085703 19 358 3.2 8.0 0.00 0.15 0.00 94 1010.4
20260509085604 19 354 3.2 8.0 0.00 0.15 0.00 94 1010.4
20260509085404 19 345 3.2 8.0 0.00 0.15 0.00 94 1010.4
20260509085306 19 336 3.2 6.4 0.00 0.15 0.00 94 1010.4
20260509085204 19 324 1.6 4.8 0.00 0.15 0.00 94 1010.4
20260509085104 19 309 1.6 3.2 0.00 0.15 0.00 94 1010.3
20260509085003 19 290 1.6 3.2 0.00 0.15 0.00 94 1010.2
20260509084904 19 270 1.6 3.2 0.00 0.15 0.00 93 1010.1
20260509084804 19 243 1.6 3.2 0.00 0.15 0.00 93 1010.1
20260509084704 19 221 1.6 3.2 0.00 0.15 0.00 93 1010.0
20260509084503 19 197 1.6 3.2 0.00 0.15 0.00 93 1009.9
20260509084404 19 193 1.6 3.2 0.00 0.15 0.00 93 1009.9
20260509084303 19 188 1.6 3.2 0.00 0.15 0.00 93 1009.9
20260509084105 19 187 1.6 3.2 0.00 0.15 0.00 93 1009.8
20260509084004 19 187 1.6 3.2 0.00 0.15 0.00 93 1009.8
20260509083904 20 187 1.6 3.2 0.00 0.15 0.00 93 1009.8
20260509083805 20 187 1.6 3.2 0.00 0.15 0.00 93 1009.8
20260509083704 20 187 1.6 3.2 0.00 0.15 0.00 93 1009.8
20260509083603 20 187 1.6 3.2 0.00 0.15 0.00 93 1009.8
20260509083504 20 187 1.6 3.2 0.00 0.15 0.00 93 1009.7
20260509083406 20 187 1.6 3.2 0.00 0.15 0.00 93 1009.7
20260509083304 20 187 1.6 3.2 0.00 0.15 0.00 93 1009.6
20260509083204 20 187 1.6 4.8 0.00 0.15 0.00 93 1009.6
20260509083104 20 186 1.6 6.4 0.00 0.15 0.00 93 1009.6
20260509083003 20 184 3.2 6.4 0.00 0.15 0.00 93 1009.5
20260509082904 20 184 3.2 6.4 0.00 0.15 0.00 93 1009.4
20260509082804 20 184 3.2 6.4 0.00 0.15 0.00 93 1009.4
20260509082705 20 184 4.8 6.4 0.00 0.15 0.00 93 1009.3
20260509082604 20 183 4.8 6.4 0.00 0.15 0.00 93 1009.3
20260509082503 20 182 4.8 6.4 0.00 0.15 0.00 93 1009.2
20260509082404 20 181 4.8 6.4 0.00 0.15 0.00 93 1009.3
20260509082306 20 179 4.8 6.4 0.00 0.15 0.00 93 1009.2
20260509082203 20 178 4.8 6.4 0.00 0.15 0.00 93 1009.2
20260509082104 20 177 3.2 6.4 0.00 0.15 0.00 93 1009.2
20260509082004 20 176 3.2 6.4 0.00 0.15 0.00 93 1009.1
20260509081904 20 173 1.6 6.4 0.00 0.15 0.00 93 1009.2
20260509081804 20 161 1.6 6.4 0.00 0.15 0.00 93 1009.3
20260509081704 20 102 1.6 6.4 0.00 0.15 0.00 93 1009.4
20260509081604 19 15 0.0 6.4 0.00 0.15 0.00 93 1009.5
20260509081504 19 9 0.0 4.8 0.00 0.15 0.00 93 1009.5
20260509081404 20 9 0.0 3.2 0.00 0.15 0.00 93 1009.6
20260509081304 20 9 0.0 1.6 0.00 0.15 0.00 93 1009.6
20260509081205 20 9 0.0 3.2 0.00 0.15 0.00 93 1009.6
20260509081104 20 9 0.0 3.2 0.00 0.15 0.00 93 1009.6
20260509081005 20 9 1.6 3.2 0.00 0.15 0.00 93 1009.7
20260509080904 20 9 1.6 3.2 0.00 0.15 0.00 93 1009.7
20260509080804 20 9 1.6 3.2 0.00 0.15 0.00 93 1009.8
20260509080504 20 350 1.6 3.2 0.00 0.15 0.00 93 1009.9
20260509080404 20 344 1.6 3.2 0.00 0.15 0.00 93 1010.0
20260509080303 20 327 1.6 3.2 0.00 0.15 0.00 93 1010.0
20260509080204 20 304 1.6 3.2 0.00 0.15 0.00 93 1010.0
20260509080004 20 246 1.6 3.2 0.00 0.15 0.00 93 1010.0
20260509075903 20 230 1.6 3.2 0.00 0.15 0.00 93 1010.0
20260509075804 20 218 1.6 3.2 0.00 0.15 0.00 93 1010.0
20260509075703 20 208 1.6 3.2 0.00 0.15 0.00 93 1010.0
20260509075604 20 206 1.6 1.6 0.00 0.15 0.00 93 1010.0
20260509075404 20 206 0.0 3.2 0.00 0.15 0.00 93 1010.0
20260509075306 20 206 1.6 3.2 0.00 0.15 0.00 93 1010.1
20260509075203 20 206 1.6 3.2 0.00 0.15 0.00 93 1010.1
20260509075104 20 206 1.6 4.8 0.00 0.15 0.00 93 1010.2
20260509075005 20 208 1.6 8.0 0.00 0.15 0.00 93 1010.2
20260509074904 20 208 1.6 8.0 0.00 0.15 0.00 93 1010.2
20260509074804 20 207 1.6 8.0 0.00 0.15 0.00 93 1010.2
20260509074604 20 205 3.2 8.0 0.00 0.15 0.00 93 1010.3
20260509074304 21 201 3.2 8.0 0.00 0.15 0.00 93 1010.3
20260509074104 21 198 3.2 8.0 0.00 0.15 0.00 93 1010.3
20260509074004 21 196 3.2 8.0 0.00 0.15 0.00 93 1010.3
20260509073904 21 195 3.2 8.0 0.00 0.15 0.00 93 1010.3
20260509073804 21 194 3.2 8.0 0.00 0.15 0.00 93 1010.3
20260509073704 21 196 3.2 8.0 0.00 0.15 0.00 93 1010.3
20260509073604 21 194 3.2 9.7 0.00 0.15 0.00 93 1010.3
20260509073504 21 193 3.2 9.7 0.00 0.15 0.00 93 1010.4
20260509073405 21 192 4.8 9.7 0.00 0.15 0.00 93 1010.4
20260509073303 21 192 4.8 9.7 0.00 0.15 0.00 93 1010.4
20260509073203 21 192 4.8 9.7 0.00 0.15 0.00 93 1010.4
20260509073104 21 193 4.8 9.7 0.00 0.15 0.00 93 1010.4
20260509072903 21 194 4.8 9.7 0.00 0.15 0.00 93 1010.3
20260509072805 21 194 4.8 9.7 0.00 0.15 0.00 93 1010.3
20260509072604 20 196 4.8 9.7 0.00 0.15 0.00 93 1010.1
20260509072504 20 199 4.8 9.7 0.00 0.15 0.00 93 1010.1
20260509072104 20 203 4.8 9.7 0.00 0.15 0.00 93 1010.0
20260509072004 20 203 4.8 9.7 0.00 0.15 0.00 93 1010.0
20260509071903 20 203 4.8 9.7 0.00 0.15 0.00 93 1010.0
20260509071603 20 197 3.2 8.0 0.00 0.15 0.00 93 1010.0
20260509071504 20 193 3.2 6.4 0.00 0.15 0.00 92 1009.9
20260509071404 20 191 3.2 6.4 0.00 0.15 0.00 92 1009.9
20260509071304 20 188 3.2 6.4 0.00 0.15 0.00 92 1009.9
20260509071204 20 187 3.2 6.4 0.00 0.15 0.00 92 1009.9
20260509071104 20 184 1.6 6.4 0.00 0.15 0.00 92 1009.9
20260509071004 20 181 1.6 4.8 0.00 0.15 0.00 92 1009.9
20260509070904 20 178 1.6 4.8 0.00 0.15 0.00 92 1010.0
20260509070804 20 175 1.6 4.8 0.00 0.15 0.00 92 1009.9
20260509070404 20 175 1.6 3.2 0.00 0.15 0.00 92 1010.2
20260509070303 20 174 1.6 3.2 0.00 0.15 0.00 92 1010.2
20260509070204 20 175 1.6 3.2 0.00 0.15 0.00 92 1010.2
20260509070004 21 175 1.6 3.2 0.00 0.15 0.00 92 1010.1
20260509065904 21 175 1.6 3.2 0.00 0.15 0.00 92 1010.1
20260509065804 21 175 1.6 6.4 0.00 0.15 0.00 92 1010.1
20260509065703 21 175 3.2 6.4 0.00 0.15 0.00 92 1010.1
20260509065503 21 174 3.2 6.4 0.00 0.15 0.00 92 1010.1
20260509065404 21 174 3.2 6.4 0.00 0.15 0.00 92 1010.1
20260509065306 21 174 3.2 6.4 0.00 0.15 0.00 92 1010.2
20260509065204 21 175 3.2 6.4 0.00 0.15 0.00 92 1010.1
20260509065103 21 175 3.2 6.4 0.00 0.15 0.00 92 1010.1
20260509065004 21 175 3.2 6.4 0.00 0.15 0.00 92 1010.1
20260509064903 21 177 3.2 6.4 0.00 0.15 0.00 92 1010.1
20260509064504 21 190 3.2 4.8 0.00 0.15 0.00 92 1010.1
20260509064404 21 190 3.2 4.8 0.00 0.15 0.00 92 1010.1
20260509064304 21 189 3.2 4.8 0.00 0.15 0.00 92 1010.2
20260509064203 21 192 3.2 6.4 0.00 0.15 0.00 92 1010.2
20260509064104 21 194 3.2 6.4 0.00 0.15 0.00 92 1010.2
20260509064004 21 196 3.2 6.4 0.00 0.15 0.00 92 1010.3
20260509063803 21 203 3.2 6.4 0.00 0.15 0.00 92 1010.5
20260509063704 21 207 3.2 6.4 0.00 0.15 0.00 92 1010.5
20260509063603 21 210 3.2 6.4 0.00 0.15 0.00 92 1010.5
20260509063504 21 212 1.6 6.4 0.00 0.15 0.00 93 1010.5
20260509063403 20 216 1.6 6.4 0.00 0.15 0.00 92 1010.5
20260509063305 20 221 1.6 6.4 0.00 0.15 0.00 92 1010.5
20260509063203 20 224 1.6 6.4 0.00 0.15 0.00 92 1010.5
20260509063104 20 228 1.6 6.4 0.00 0.15 0.00 92 1010.5
20260509063003 20 240 0.0 4.8 0.00 0.15 0.00 92 1010.5
20260509062904 20 241 0.0 4.8 0.00 0.15 0.00 92 1010.4
20260509062803 20 241 0.0 4.8 0.00 0.15 0.00 92 1010.4
20260509062704 20 240 0.0 3.2 0.00 0.15 0.00 92 1010.3
20260509062605 20 241 0.0 1.6 0.00 0.15 0.00 92 1010.2
20260509062505 20 241 0.0 1.6 0.00 0.15 0.00 92 1010.2
20260509062406 20 241 0.0 1.6 0.00 0.15 0.00 92 1010.2
20260509062306 20 240 0.0 3.2 0.00 0.15 0.00 92 1010.2
20260509062206 21 241 0.0 3.2 0.00 0.15 0.00 92 1010.2
20260509062105 21 251 0.0 3.2 0.00 0.15 0.00 92 1010.1
20260509062007 21 287 1.6 3.2 0.00 0.15 0.00 92 1010.1
20260509061906 21 320 1.6 3.2 0.00 0.15 0.00 92 1010.1
20260509061706 21 355 1.6 3.2 0.00 0.15 0.00 92 1010.1
20260509061606 21 2 1.6 3.2 0.00 0.15 0.00 92 1010.1
20260509061406 21 11 1.6 3.2 0.00 0.15 0.00 92 1010.1
20260509061206 20 22 1.6 3.2 0.00 0.15 0.00 92 1010.1
20260509061006 20 25 1.6 3.2 0.00 0.15 0.00 92 1010.1
20260509060905 20 25 1.6 3.2 0.00 0.15 0.00 92 1010.1
20260509060807 20 25 1.6 3.2 0.00 0.15 0.00 92 1010.2
20260509060706 20 25 1.6 3.2 0.00 0.15 0.00 92 1010.2
20260509060606 20 25 1.6 3.2 0.00 0.15 0.00 92 1010.2
20260509060506 20 25 1.6 3.2 0.00 0.15 0.00 92 1010.3
20260509060406 20 25 1.6 3.2 0.00 0.15 0.00 92 1010.3
20260509060306 20 25 1.6 3.2 0.00 0.15 0.00 92 1010.3
20260509060006 20 25 1.6 3.2 0.00 0.15 0.00 92 1010.2
20260509055905 20 25 1.6 3.2 0.00 0.15 0.00 92 1010.2
20260509055806 20 25 1.6 3.2 0.00 0.15 0.00 92 1010.1
20260509055705 20 25 1.6 1.6 0.00 0.15 0.00 92 1010.1
20260509055406 20 25 1.6 1.6 0.00 0.15 0.00 92 1010.0
20260509055307 20 25 1.6 1.6 0.00 0.15 0.00 92 1009.9
20260509055205 20 25 1.6 1.6 0.00 0.15 0.00 92 1009.9
20260509055106 20 25 1.6 1.6 0.00 0.15 0.00 92 1009.9
20260509055005 20 25 1.6 3.2 0.00 0.15 0.00 92 1009.8
20260509054906 20 25 1.6 3.2 0.00 0.15 0.00 92 1009.9
20260509054805 20 25 1.6 3.2 0.00 0.15 0.00 92 1009.8
20260509054706 20 25 1.6 3.2 0.00 0.15 0.00 92 1009.8
20260509054605 20 25 1.6 3.2 0.00 0.15 0.00 92 1009.8
20260509054506 20 25 1.6 3.2 0.00 0.15 0.00 92 1009.7
20260509054406 20 25 1.6 3.2 0.00 0.15 0.00 92 1009.7
20260509054105 20 25 0.0 3.2 0.00 0.15 0.00 92 1009.7
20260509054006 20 25 0.0 1.6 0.00 0.15 0.00 92 1009.7
20260509053905 20 25 0.0 1.6 0.00 0.15 0.00 92 1009.7
20260509053806 20 25 0.0 1.6 0.00 0.15 0.00 92 1009.6
20260509053705 20 25 0.0 1.6 0.00 0.15 0.00 92 1009.6
20260509053606 20 25 0.0 1.6 0.00 0.15 0.00 92 1009.6
20260509053406 20 25 0.0 1.6 0.00 0.15 0.00 92 1009.5
20260509053206 20 25 0.0 1.6 0.00 0.15 0.00 92 1009.5
20260509052906 20 25 0.0 1.6 0.00 0.15 0.00 92 1009.5
20260509052806 20 25 0.0 1.6 0.00 0.15 0.00 92 1009.4
20260509052705 20 25 0.0 1.6 0.00 0.15 0.00 92 1009.4
20260509052606 20 25 0.0 1.6 0.00 0.15 0.00 92 1009.4
20260509052406 20 25 0.0 4.8 0.00 0.15 0.00 92 1009.4
20260509052307 20 25 0.0 4.8 0.00 0.15 0.00 92 1009.4
20260509052105 20 26 1.6 4.8 0.00 0.15 0.00 92 1009.3
20260509051905 20 28 1.6 4.8 0.00 0.15 0.00 92 1009.3
20260509051805 20 29 1.6 4.8 0.00 0.15 0.00 92 1009.3
20260509051605 20 29 1.6 4.8 0.00 0.15 0.00 92 1009.3
20260509051506 20 30 1.6 3.2 0.00 0.15 0.00 92 1009.3
20260509051405 20 30 1.6 4.8 0.00 0.15 0.00 92 1009.2
20260509051206 20 31 1.6 4.8 0.00 0.15 0.00 92 1009.2
20260509051105 20 31 1.6 4.8 0.00 0.15 0.00 92 1009.2
20260509051006 20 31 1.6 4.8 0.00 0.15 0.00 92 1009.2
20260509050905 20 31 1.6 4.8 0.00 0.15 0.00 92 1009.2
20260509050806 20 31 1.6 4.8 0.00 0.15 0.00 92 1009.2
20260509050705 20 30 1.6 4.8 0.00 0.15 0.00 92 1009.2
20260509050606 20 31 0.0 4.8 0.00 0.15 0.00 92 1009.2
20260509050505 20 34 0.0 4.8 0.00 0.15 0.00 92 1009.2
20260509050406 20 43 0.0 3.2 0.00 0.15 0.00 92 1009.2
20260509050305 20 0 0.0 0.0 0.00 0.15 0.00 92 1009.2
20260509050105 20 0 0.0 0.0 0.00 0.15 0.00 92 1009.2
20260509050006 20 0 0.0 0.0 0.00 0.15 0.00 92 1009.2
20260509045905 20 0 0.0 0.0 0.00 0.15 0.15 92 1009.2
20260509045806 20 0 0.0 0.0 0.00 0.15 0.15 92 1009.2
20260509045705 20 0 0.0 0.0 0.00 0.15 0.15 92 1009.2
20260509045505 20 0 0.0 0.0 0.00 0.15 0.15 92 1009.3
20260509045406 20 0 0.0 0.0 0.00 0.15 0.15 92 1009.3
20260509045306 20 0 0.0 0.0 0.00 0.15 0.15 92 1009.3
20260509045206 20 0 0.0 0.0 0.00 0.15 0.15 92 1009.3
20260509045106 20 0 0.0 0.0 0.00 0.15 0.15 92 1009.3
20260509045005 20 0 0.0 0.0 0.00 0.15 0.15 92 1009.3
20260509044906 20 0 0.0 0.0 0.00 0.15 0.15 92 1009.3
20260509044805 20 0 0.0 0.0 0.00 0.15 0.15 92 1009.3
20260509044605 20 0 0.0 0.0 0.00 0.15 0.15 92 1009.3
20260509044505 20 0 0.0 0.0 0.00 0.15 0.15 92 1009.3
20260509044406 20 0 0.0 0.0 0.00 0.15 0.15 92 1009.3
20260509044305 20 0 0.0 0.0 0.00 0.15 0.15 92 1009.3
20260509044206 19 0 0.0 0.0 0.00 0.15 0.15 92 1009.4
20260509044105 19 0 0.0 0.0 0.00 0.15 0.15 92 1009.4
20260509044006 19 0 0.0 0.0 0.00 0.15 0.15 92 1009.4
20260509043905 19 0 0.0 0.0 0.00 0.15 0.15 92 1009.5
20260509043806 19 0 0.0 0.0 0.00 0.15 0.15 92 1009.4
20260509043705 19 0 0.0 0.0 0.00 0.15 0.15 92 1009.4
20260509043606 19 0 0.0 0.0 0.00 0.15 0.15 92 1009.4
20260509043505 19 0 0.0 0.0 0.00 0.15 0.15 92 1009.4
20260509043406 19 0 0.0 0.0 0.00 0.15 0.15 92 1009.4
20260509043305 19 0 0.0 0.0 0.00 0.15 0.15 92 1009.4
20260509043206 19 0 0.0 0.0 0.00 0.15 0.15 92 1009.4
20260509043105 19 0 0.0 0.0 0.00 0.15 0.15 92 1009.4
20260509043006 19 0 0.0 0.0 0.00 0.15 0.15 92 1009.4
20260509042905 19 0 0.0 0.0 0.00 0.15 0.15 92 1009.4
20260509042806 19 0 0.0 0.0 0.00 0.15 0.15 92 1009.4
20260509042705 19 0 0.0 0.0 0.00 0.15 0.15 92 1009.3
20260509042607 19 0 0.0 0.0 0.00 0.15 0.15 92 1009.4
20260509042505 19 0 0.0 0.0 0.00 0.15 0.15 92 1009.3
20260509042406 19 0 0.0 0.0 0.00 0.15 0.15 92 1009.3
20260509042205 19 0 0.0 0.0 0.00 0.15 0.15 92 1009.3
20260509042006 19 0 0.0 0.0 0.00 0.15 0.15 92 1009.2
20260509041905 19 0 0.0 0.0 0.00 0.15 0.15 92 1009.2
20260509041806 19 0 0.0 0.0 0.00 0.15 0.15 92 1009.2
20260509041407 19 0 0.0 0.0 0.00 0.15 0.15 92 1009.3
20260509041305 19 0 0.0 0.0 0.00 0.15 0.15 92 1009.3
20260509041106 19 0 0.0 0.0 0.00 0.15 0.15 92 1009.3
20260509040905 19 0 0.0 0.0 0.00 0.15 0.15 92 1009.3
20260509040806 19 0 0.0 0.0 0.00 0.15 0.15 92 1009.3
20260509040606 19 0 0.0 0.0 0.00 0.15 0.15 91 1009.2
20260509040505 20 0 0.0 0.0 0.00 0.15 0.15 92 1009.2
20260509040406 20 0 0.0 0.0 0.00 0.15 0.15 92 1009.2
20260509040305 20 0 0.0 0.0 0.00 0.15 0.15 92 1009.2
20260509040105 20 0 0.0 0.0 0.00 0.15 0.15 92 1009.2
20260509040006 20 0 0.0 0.0 0.00 0.15 0.15 92 1009.2
20260509035806 20 0 0.0 0.0 0.00 0.15 0.15 92 1009.3
20260509035705 20 0 0.0 0.0 0.00 0.15 0.15 92 1009.3
20260509035606 20 0 0.0 0.0 0.00 0.15 0.15 92 1009.2
20260509035505 20 0 0.0 0.0 0.00 0.15 0.15 91 1009.2
20260509035406 20 0 0.0 0.0 0.00 0.15 0.15 91 1009.2
20260509035306 20 0 0.0 0.0 0.00 0.15 0.15 91 1009.1
20260509035206 20 0 0.0 0.0 0.00 0.15 0.15 91 1009.1
20260509035105 20 0 0.0 0.0 0.00 0.15 0.15 91 1009.1
20260509035006 20 0 0.0 0.0 0.00 0.15 0.15 91 1009.1
20260509034905 20 0 0.0 0.0 0.00 0.15 0.15 91 1009.0
20260509034806 20 0 0.0 0.0 0.00 0.15 0.15 91 1009.1
20260509034706 20 0 0.0 0.0 0.00 0.15 0.15 92 1009.1
20260509034606 20 0 0.0 0.0 0.00 0.15 0.15 92 1009.1
20260509034405 20 0 0.0 0.0 0.00 0.15 0.15 91 1009.0
20260509034306 20 0 0.0 0.0 0.00 0.15 0.15 91 1009.0
20260509034205 20 0 0.0 0.0 0.00 0.15 0.15 91 1008.9
20260509034106 20 0 0.0 0.0 0.00 0.15 0.15 91 1008.9
20260509034006 20 0 0.0 0.0 0.00 0.15 0.15 91 1008.9
20260509033906 20 0 0.0 0.0 0.00 0.15 0.15 91 1008.8
20260509033806 20 176 0.0 1.6 0.00 0.15 0.15 91 1008.9
20260509033706 20 176 0.0 1.6 0.00 0.15 0.15 91 1008.9
20260509033607 20 176 0.0 1.6 0.00 0.15 0.15 91 1008.8
20260509033506 20 176 0.0 1.6 0.00 0.15 0.15 91 1008.9
20260509033405 20 176 0.0 1.6 0.00 0.15 0.15 91 1008.9
20260509033306 20 176 0.0 1.6 0.00 0.15 0.15 91 1008.9
20260509033205 20 176 0.0 1.6 0.00 0.15 0.15 91 1008.9
20260509033106 20 175 0.0 1.6 0.00 0.15 0.15 91 1008.9
20260509033005 20 175 0.0 1.6 0.00 0.15 0.15 91 1008.9
20260509032805 20 175 0.0 1.6 0.00 0.15 0.15 91 1008.9
20260509032605 20 175 0.0 1.6 0.00 0.15 0.15 91 1008.9
20260509032506 20 175 0.0 1.6 0.00 0.15 0.15 91 1008.8
20260509032405 20 175 0.0 1.6 0.00 0.15 0.15 91 1008.9
20260509032307 20 175 0.0 1.6 0.00 0.15 0.15 91 1008.9
20260509032106 20 175 0.0 1.6 0.00 0.15 0.15 91 1008.8
20260509032006 20 175 0.0 1.6 0.00 0.15 0.15 91 1008.8
20260509031905 20 176 0.0 1.6 0.00 0.15 0.15 91 1008.8
20260509031806 20 0 0.0 0.0 0.00 0.15 0.15 91 1008.8
20260509031705 20 0 0.0 0.0 0.00 0.15 0.15 91 1008.8
20260509031607 20 0 0.0 0.0 0.00 0.15 0.15 91 1008.8
20260509031505 20 175 0.0 1.6 0.00 0.15 0.15 91 1008.8
20260509031305 20 176 0.0 1.6 0.00 0.15 0.15 91 1008.8
20260509031005 20 175 0.0 3.2 0.00 0.15 0.15 91 1008.9
20260509030906 20 175 1.6 3.2 0.00 0.15 0.15 91 1008.8
20260509030805 20 176 1.6 3.2 0.00 0.15 0.15 91 1008.7
20260509030506 20 176 1.6 3.2 0.00 0.15 0.15 91 1008.6
20260509030405 20 176 1.6 3.2 0.00 0.15 0.15 91 1008.6
20260509030305 20 176 1.6 3.2 0.00 0.15 0.15 91 1008.5
20260509030205 20 176 1.6 3.2 0.00 0.15 0.15 91 1008.5
20260509030106 20 176 1.6 3.2 0.00 0.15 0.15 91 1008.4
20260509030005 20 176 0.0 3.2 0.00 0.15 0.15 91 1008.5
20260509025906 20 176 0.0 3.2 0.00 0.15 0.15 91 1008.4
20260509025805 20 175 0.0 1.6 0.00 0.15 0.15 91 1008.4
20260509025705 20 175 0.0 1.6 0.00 0.15 0.15 91 1008.4
20260509025505 20 175 0.0 1.6 0.00 0.15 0.15 91 1008.4
20260509025406 20 175 0.0 1.6 0.00 0.15 0.15 91 1008.4
20260509025206 20 175 0.0 3.2 0.00 0.15 0.15 91 1008.4
20260509025105 20 175 0.0 3.2 0.00 0.15 0.15 90 1008.3
20260509025006 20 175 1.6 3.2 0.00 0.15 0.15 90 1008.3
20260509024905 20 175 1.6 3.2 0.00 0.15 0.15 90 1008.3
20260509024806 20 175 1.6 3.2 0.00 0.15 0.15 91 1008.3
20260509024705 20 176 1.6 3.2 0.00 0.15 0.15 91 1008.3
20260509024606 20 175 1.6 3.2 0.00 0.15 0.15 90 1008.3
20260509024406 20 175 1.6 3.2 0.00 0.15 0.15 90 1008.3
20260509024305 20 175 0.0 3.2 0.00 0.15 0.15 90 1008.2
20260509024206 20 175 0.0 3.2 0.00 0.15 0.15 91 1008.3
20260509024105 20 175 0.0 1.6 0.00 0.15 0.15 91 1008.3
20260509024006 20 175 0.0 1.6 0.00 0.15 0.15 91 1008.3
20260509023905 20 175 0.0 1.6 0.00 0.15 0.15 90 1008.3
20260509023806 20 176 0.0 1.6 0.00 0.15 0.15 90 1008.3
20260509023305 20 175 0.0 1.6 0.00 0.15 0.15 90 1008.2
20260509023206 20 176 0.0 1.6 0.00 0.15 0.15 90 1008.3
20260509023105 20 175 0.0 3.2 0.00 0.15 0.15 89 1008.3
20260509023007 20 175 1.6 3.2 0.00 0.15 0.15 89 1008.2
20260509022905 21 175 1.6 3.2 0.00 0.15 0.15 89 1008.2
20260509022806 21 176 1.6 3.2 0.00 0.15 0.15 89 1008.2
20260509022606 21 176 1.6 3.2 0.00 0.15 0.15 89 1008.2
20260509022505 21 176 1.6 3.2 0.00 0.15 0.15 89 1008.2
20260509022406 21 176 1.6 3.2 0.00 0.15 0.15 89 1008.2
20260509022307 21 176 1.6 3.2 0.00 0.15 0.15 89 1008.2
20260509022206 21 176 1.6 3.2 0.00 0.15 0.15 89 1008.1
20260509022105 21 176 1.6 3.2 0.00 0.15 0.15 89 1008.2
20260509021605 21 176 1.6 4.8 0.00 0.15 0.15 89 1008.3
20260509021505 21 176 1.6 4.8 0.00 0.15 0.15 89 1008.3
20260509021406 21 176 3.2 4.8 0.00 0.15 0.15 89 1008.2
20260509021305 21 176 3.2 4.8 0.00 0.15 0.15 89 1008.2
20260509021207 21 176 3.2 4.8 0.00 0.15 0.15 89 1008.2
20260509021105 21 176 3.2 4.8 0.00 0.15 0.15 89 1008.2
20260509021006 21 176 3.2 4.8 0.00 0.15 0.15 89 1008.2
20260509020905 21 174 3.2 4.8 0.00 0.15 0.15 89 1008.2
20260509020806 21 172 3.2 4.8 0.00 0.15 0.15 89 1008.1
20260509020705 21 169 3.2 4.8 0.00 0.15 0.15 89 1008.1
20260509020606 21 165 3.2 4.8 0.00 0.15 0.15 89 1008.1
20260509020505 21 161 3.2 4.8 0.00 0.15 0.15 89 1008.1
20260509020406 21 157 3.2 4.8 0.00 0.15 0.15 89 1008.0
20260509020305 21 154 3.2 4.8 0.00 0.15 0.15 89 1008.0
20260509020205 21 151 3.2 4.8 0.00 0.15 0.15 89 1008.0
20260509020105 21 147 3.2 4.8 0.00 0.15 0.15 89 1008.0
20260509015905 21 138 1.6 4.8 0.00 0.15 0.15 89 1008.0
20260509015806 21 134 1.6 4.8 0.00 0.15 0.15 89 1008.0
20260509015705 21 128 1.6 4.8 0.00 0.15 0.15 89 1008.0
20260509015605 21 122 1.6 4.8 0.00 0.15 0.15 89 1008.0
20260509015505 21 112 1.6 4.8 0.00 0.15 0.15 89 1008.0
20260509015406 21 100 1.6 3.2 0.00 0.15 0.15 89 1007.9
20260509015306 21 89 1.6 3.2 0.00 0.15 0.15 89 1007.9
20260509015206 21 81 1.6 3.2 0.00 0.15 0.15 89 1007.9
20260509015106 21 73 1.6 3.2 0.00 0.15 0.15 88 1007.9
20260509014906 21 46 1.6 3.2 0.00 0.15 0.15 88 1007.9
20260509014806 21 36 1.6 3.2 0.00 0.15 0.15 88 1007.9
20260509014705 21 36 1.6 3.2 0.00 0.15 0.15 88 1007.9
20260509014505 21 36 1.6 3.2 0.00 0.15 0.15 88 1007.9
20260509014406 21 36 1.6 3.2 0.00 0.15 0.15 88 1007.9
20260509014305 21 36 1.6 3.2 0.00 0.15 0.15 88 1007.9
20260509014206 21 36 1.6 3.2 0.00 0.15 0.15 88 1007.9
20260509014105 21 36 1.6 3.2 0.00 0.15 0.15 88 1007.9
20260509014006 21 36 1.6 3.2 0.00 0.15 0.15 88 1007.9
20260509013905 21 36 0.0 3.2 0.00 0.15 0.15 88 1007.9
20260509013806 21 36 0.0 3.2 0.00 0.15 0.15 88 1007.9
20260509013605 21 36 1.6 3.2 0.00 0.15 0.15 87 1007.9
20260509013305 21 40 1.6 4.8 0.00 0.15 0.15 87 1008.0
20260509013206 21 52 1.6 6.4 0.00 0.15 0.15 87 1008.0
20260509013105 21 58 3.2 6.4 0.00 0.15 0.15 87 1007.9
20260509013006 21 66 3.2 6.4 0.00 0.15 0.15 87 1007.9
20260509012905 21 74 3.2 6.4 0.00 0.15 0.15 87 1008.0
20260509012806 21 83 3.2 8.0 0.00 0.15 0.15 87 1008.0
20260509012705 21 87 3.2 8.0 0.00 0.15 0.15 87 1007.9
20260509012606 21 92 3.2 8.0 0.00 0.15 0.15 87 1007.9
20260509012307 21 109 3.2 8.0 0.00 0.15 0.15 87 1007.9
20260509012205 21 114 3.2 8.0 0.00 0.15 0.15 87 1007.9
20260509012105 21 118 3.2 9.7 0.00 0.15 0.15 87 1007.9
20260509012006 21 121 4.8 9.7 0.00 0.15 0.15 86 1007.8
20260509011905 21 126 4.8 11.3 0.00 0.15 0.15 86 1007.9
20260509011805 21 130 4.8 11.3 0.00 0.15 0.15 86 1007.9
20260509011705 22 133 4.8 11.3 0.00 0.15 0.15 86 1007.9
20260509011605 22 133 4.8 11.3 0.00 0.15 0.15 86 1007.8
20260509011506 22 133 4.8 12.9 0.00 0.15 0.15 86 1007.8
20260509011405 22 133 6.4 12.9 0.00 0.15 0.15 86 1007.7
20260509011205 22 129 6.4 12.9 0.00 0.15 0.15 86 1007.7
20260509011105 22 128 6.4 12.9 0.00 0.15 0.15 86 1007.7
20260509011006 22 127 6.4 12.9 0.00 0.15 0.15 86 1007.7
20260509010805 22 124 6.4 12.9 0.00 0.15 0.15 86 1007.8
20260509010606 22 122 8.0 12.9 0.00 0.15 0.15 86 1007.7
20260509010505 22 121 8.0 12.9 0.00 0.15 0.15 85 1007.7
20260509010406 22 121 6.4 12.9 0.00 0.15 0.15 85 1007.7
20260509010305 22 121 6.4 12.9 0.00 0.15 0.15 85 1007.7
20260509010206 22 120 6.4 14.5 0.00 0.15 0.15 85 1007.7
20260509010105 22 120 6.4 14.5 0.00 0.15 0.15 85 1007.6
20260509005905 22 118 6.4 14.5 0.00 0.15 0.15 85 1007.6
20260509005806 22 117 6.4 14.5 0.00 0.15 0.15 85 1007.7
20260509005705 22 116 6.4 14.5 0.00 0.15 0.15 85 1007.7
20260509005505 22 113 6.4 14.5 0.00 0.15 0.15 85 1007.6
20260509005306 22 109 6.4 14.5 0.00 0.15 0.15 85 1007.6
20260509005105 22 106 6.4 12.9 0.00 0.15 0.15 85 1007.6
20260509005005 22 103 6.4 12.9 0.00 0.15 0.15 85 1007.7
20260509004905 22 101 6.4 9.7 0.00 0.15 0.15 85 1007.7
20260509004805 22 101 6.4 14.5 0.00 0.15 0.15 85 1007.8
20260509004606 22 96 6.4 14.5 0.00 0.15 0.15 85 1007.8
20260509004505 22 96 6.4 14.5 0.00 0.15 0.15 85 1007.8
20260509004406 22 96 6.4 14.5 0.00 0.15 0.15 85 1007.8
20260509004305 22 95 6.4 14.5 0.00 0.15 0.15 85 1007.8
20260509004206 22 93 6.4 14.5 0.00 0.15 0.15 85 1007.8
20260509004006 22 91 6.4 14.5 0.00 0.15 0.15 85 1007.8
20260509003905 22 90 6.4 14.5 0.00 0.15 0.15 85 1007.9
20260509003807 22 88 4.8 9.7 0.00 0.15 0.15 85 1007.8
20260509003606 22 90 4.8 9.7 0.00 0.15 0.15 85 1007.9
20260509003505 22 89 4.8 9.7 0.00 0.15 0.15 85 1007.9
20260509003405 22 90 4.8 9.7 0.00 0.15 0.15 85 1007.9
20260509003305 22 90 4.8 9.7 0.00 0.15 0.15 85 1008.0
20260509003206 22 90 4.8 11.3 0.00 0.15 0.15 85 1007.9
20260509003105 22 91 4.8 11.3 0.00 0.15 0.15 85 1008.0
20260509003005 22 95 4.8 11.3 0.00 0.15 0.15 85 1008.0
20260509002905 22 97 4.8 11.3 0.00 0.15 0.15 85 1008.0
20260509002806 22 99 6.4 11.3 0.00 0.15 0.15 85 1007.9
20260509002705 22 100 6.4 11.3 0.00 0.15 0.15 85 1007.9
20260509002606 22 102 6.4 11.3 0.00 0.15 0.15 84 1007.9
20260509002505 22 104 6.4 12.9 0.00 0.15 0.15 84 1007.9
20260509002406 22 104 8.0 12.9 0.00 0.15 0.15 84 1007.9
20260509002306 22 104 6.4 12.9 0.00 0.15 0.15 84 1007.9
20260509002206 22 105 6.4 12.9 0.00 0.15 0.15 84 1007.8
20260509002105 22 107 6.4 12.9 0.00 0.15 0.15 84 1007.8
20260509002006 22 107 6.4 12.9 0.00 0.15 0.15 84 1007.8
20260509001905 22 108 6.4 12.9 0.00 0.15 0.15 84 1007.8
20260509001806 22 109 6.4 12.9 0.00 0.15 0.15 84 1007.8
20260509001705 22 110 6.4 12.9 0.00 0.15 0.15 84 1007.9
20260509001605 22 111 6.4 12.9 0.00 0.15 0.15 84 1007.9
20260509001505 22 114 6.4 12.9 0.00 0.15 0.15 84 1007.9
20260509001405 22 115 6.4 12.9 0.00 0.15 0.15 84 1007.9
20260509001305 22 117 4.8 12.9 0.00 0.15 0.15 84 1007.8
20260509001205 22 120 4.8 12.9 0.00 0.15 0.15 84 1007.8
20260509001106 22 120 6.4 12.9 0.00 0.15 0.15 84 1007.9
20260509001005 22 122 6.4 12.9 0.00 0.15 0.15 84 1007.8
20260509000905 22 122 6.4 14.5 0.00 0.15 0.15 84 1007.8
20260509000805 22 122 6.4 14.5 0.00 0.15 0.15 84 1007.8
20260509000705 22 121 6.4 14.5 0.00 0.15 0.15 84 1007.8
20260509000605 22 121 6.4 14.5 0.00 0.15 0.15 84 1007.8
20260509000505 22 120 8.0 14.5 0.00 0.15 0.15 84 1007.8
20260509000305 22 120 8.0 14.5 0.00 0.15 0.15 84 1007.9
20260509000206 22 119 8.0 14.5 0.00 0.15 0.15 84 1007.8
20260509000105 22 118 8.0 14.5 0.00 0.15 0.15 83 1007.9
20260509000005 22 117 8.0 14.5 0.00 0.15 0.15 83 1007.9
20260508235906 22 116 8.0 14.5 0.00 0.15 0.15 83 1007.9
20260508235705 22 114 8.0 14.5 0.00 0.15 0.15 83 1007.8
20260508235606 22 113 8.0 16.1 0.00 0.15 0.15 83 1007.8
20260508235505 22 113 8.0 16.1 0.00 0.15 0.15 83 1007.8
20260508235406 22 111 8.0 16.1 0.00 0.15 0.15 84 1007.8
20260508235306 22 110 8.0 16.1 0.00 0.15 0.15 83 1007.9
20260508235206 22 110 8.0 16.1 0.00 0.15 0.15 83 1008.0
20260508235105 22 110 8.0 16.1 0.00 0.15 0.15 83 1007.9
20260508235006 22 108 8.0 16.1 0.00 0.15 0.15 83 1008.0
20260508234905 22 107 6.4 16.1 0.00 0.15 0.15 83 1008.0
20260508234805 22 104 6.4 16.1 0.00 0.15 0.15 83 1008.0
20260508234706 22 103 6.4 16.1 0.00 0.15 0.15 83 1008.0
20260508234605 22 102 6.4 11.3 0.00 0.15 0.15 83 1008.0
20260508234505 22 101 6.4 12.9 0.00 0.15 0.15 83 1008.0
20260508234306 22 100 8.0 12.9 0.00 0.15 0.15 83 1008.0
20260508234205 22 98 6.4 12.9 0.00 0.15 0.15 83 1008.0
20260508234105 22 97 6.4 12.9 0.00 0.15 0.15 83 1008.0
20260508234005 22 99 6.4 12.9 0.00 0.15 0.15 83 1008.0
20260508233905 22 99 6.4 12.9 0.00 0.15 0.15 83 1008.0
20260508233805 22 100 6.4 12.9 0.00 0.15 0.15 83 1008.0
20260508233705 22 101 6.4 12.9 0.00 0.15 0.15 83 1008.1
20260508233606 22 101 6.4 16.1 0.00 0.15 0.15 83 1008.0
20260508233505 22 100 6.4 16.1 0.00 0.15 0.15 83 1008.1
20260508233305 22 99 6.4 16.1 0.00 0.15 0.15 83 1008.0
20260508233205 22 100 6.4 16.1 0.00 0.15 0.15 83 1008.0
20260508233105 22 99 6.4 16.1 0.00 0.15 0.15 83 1008.0
20260508232905 22 98 6.4 16.1 0.00 0.15 0.15 83 1008.0
20260508232806 22 97 6.4 16.1 0.00 0.15 0.15 82 1008.0
20260508232705 22 97 6.4 16.1 0.00 0.15 0.15 82 1008.0
20260508232606 22 97 6.4 14.5 0.00 0.15 0.15 82 1008.1
20260508232406 22 102 6.4 14.5 0.00 0.15 0.15 82 1008.0
20260508232307 22 106 6.4 14.5 0.00 0.15 0.15 82 1008.0
20260508232205 22 109 6.4 14.5 0.00 0.15 0.15 82 1008.1
20260508232005 22 113 6.4 14.5 0.00 0.15 0.15 82 1008.1
20260508231905 22 114 6.4 14.5 0.00 0.15 0.15 82 1008.1
20260508231805 22 116 8.0 14.5 0.00 0.15 0.15 82 1008.1
20260508231704 22 118 8.0 16.1 0.00 0.15 0.15 83 1008.1
20260508231605 22 119 8.0 16.1 0.00 0.15 0.15 82 1008.1
20260508231505 22 119 8.0 16.1 0.00 0.15 0.15 82 1008.0
20260508231405 22 117 9.7 16.1 0.00 0.15 0.15 82 1008.1
20260508231305 22 117 9.7 16.1 0.00 0.15 0.15 82 1008.0
20260508231205 22 115 9.7 16.1 0.00 0.15 0.15 82 1007.9
20260508231105 22 116 9.7 16.1 0.00 0.15 0.15 83 1007.9
20260508231006 22 115 9.7 16.1 0.00 0.15 0.15 83 1007.8
20260508230905 22 114 9.7 16.1 0.00 0.15 0.15 82 1007.9
20260508230806 22 114 9.7 16.1 0.00 0.15 0.15 82 1007.9
20260508230606 22 112 9.7 16.1 0.00 0.15 0.15 82 1007.9
20260508230505 22 112 8.0 16.1 0.00 0.15 0.15 82 1008.0
20260508230406 22 113 8.0 16.1 0.00 0.15 0.15 82 1008.0
20260508230305 22 112 8.0 16.1 0.00 0.15 0.15 82 1008.1
20260508230206 22 112 6.4 16.1 0.00 0.15 0.15 82 1008.1
20260508230105 22 110 6.4 16.1 0.00 0.15 0.15 82 1008.1
20260508230006 22 109 6.4 16.1 0.00 0.15 0.15 82 1008.1
20260508225905 22 110 6.4 12.9 0.00 0.15 0.15 82 1008.1
20260508225805 22 109 6.4 12.9 0.00 0.15 0.15 82 1008.1
20260508225705 22 109 6.4 12.9 0.00 0.15 0.15 82 1008.1
20260508225605 22 108 6.4 11.3 0.00 0.15 0.15 82 1008.2
20260508225505 22 108 6.4 11.3 0.00 0.15 0.15 82 1008.2
20260508225405 22 108 6.4 12.9 0.00 0.15 0.15 82 1008.2
20260508225306 22 107 6.4 12.9 0.00 0.15 0.15 82 1008.2
20260508225205 22 105 8.0 14.5 0.00 0.15 0.15 82 1008.2
20260508225105 22 104 8.0 14.5 0.00 0.15 0.15 82 1008.2
20260508225005 22 103 8.0 14.5 0.00 0.15 0.15 82 1008.3
20260508224905 22 103 8.0 14.5 0.00 0.15 0.15 81 1008.3
20260508224607 22 103 8.0 14.5 0.00 0.15 0.15 81 1008.3
20260508224506 22 103 6.4 14.5 0.00 0.15 0.15 81 1008.3
20260508224405 22 102 8.0 14.5 0.00 0.15 0.15 81 1008.3
20260508224205 22 106 8.0 16.1 0.00 0.15 0.15 81 1008.2
20260508224005 22 113 8.0 16.1 0.00 0.15 0.15 81 1008.2
20260508223805 22 116 8.0 16.1 0.00 0.15 0.15 81 1008.1
20260508223705 22 117 6.4 16.1 0.00 0.15 0.15 81 1008.2
20260508223505 22 116 6.4 16.1 0.00 0.15 0.15 80 1008.2
20260508223406 22 117 6.4 16.1 0.00 0.15 0.15 80 1008.2
20260508223206 22 120 4.8 16.1 0.00 0.15 0.15 79 1008.2
20260508223105 22 118 4.8 16.1 0.00 0.15 0.15 79 1008.2
20260508223005 22 115 4.8 11.3 0.00 0.15 0.15 79 1008.3
20260508222805 22 111 6.4 11.3 0.00 0.15 0.15 80 1008.3
20260508222705 22 106 6.4 14.5 0.00 0.15 0.15 80 1008.3
20260508222605 22 105 6.4 14.5 0.00 0.15 0.15 80 1008.3
20260508222505 22 104 6.4 14.5 0.00 0.15 0.15 80 1008.3
20260508222405 22 104 6.4 14.5 0.00 0.15 0.15 80 1008.3
20260508222306 22 102 8.0 14.5 0.00 0.15 0.15 80 1008.3
20260508222205 22 100 8.0 14.5 0.00 0.15 0.15 80 1008.4
20260508222005 22 101 8.0 14.5 0.00 0.15 0.15 80 1008.4
20260508221805 22 99 8.0 14.5 0.00 0.15 0.15 80 1008.4
20260508221705 22 100 8.0 14.5 0.00 0.15 0.15 80 1008.4
20260508221605 22 100 8.0 12.9 0.00 0.15 0.15 80 1008.4
20260508221507 22 102 8.0 12.9 0.00 0.15 0.15 80 1008.4
20260508221405 22 101 8.0 12.9 0.00 0.15 0.15 79 1008.4
20260508221305 22 102 8.0 14.5 0.00 0.15 0.15 80 1008.4
20260508221206 22 101 8.0 14.5 0.00 0.15 0.15 80 1008.4
20260508221105 22 98 8.0 14.5 0.00 0.15 0.15 80 1008.3
20260508221006 22 95 6.4 14.5 0.00 0.15 0.15 79 1008.3
20260508220706 22 95 6.4 14.5 0.00 0.15 0.15 79 1008.4
20260508220605 22 92 6.4 14.5 0.00 0.15 0.15 79 1008.4
20260508220505 22 90 6.4 14.5 0.00 0.15 0.15 79 1008.4
20260508220405 22 90 6.4 14.5 0.00 0.15 0.15 79 1008.5
20260508220306 22 90 6.4 12.9 0.00 0.15 0.15 79 1008.4
20260508220206 22 92 6.4 14.5 0.00 0.15 0.15 80 1008.5
20260508220105 22 94 6.4 14.5 0.00 0.15 0.15 80 1008.5
20260508220006 22 94 8.0 14.5 0.00 0.15 0.15 79 1008.5
20260508215906 22 93 8.0 14.5 0.00 0.15 0.15 80 1008.5
20260508215805 22 92 8.0 14.5 0.00 0.15 0.15 79 1008.5
20260508215706 22 95 8.0 14.5 0.00 0.15 0.15 80 1008.6
20260508215605 22 98 6.4 14.5 0.00 0.15 0.15 79 1008.6
20260508215405 22 100 6.4 14.5 0.00 0.15 0.15 79 1008.6
20260508215306 22 99 6.4 14.5 0.00 0.15 0.15 79 1008.7
20260508215105 22 99 4.8 14.5 0.00 0.15 0.15 79 1008.6
20260508215005 22 105 4.8 12.9 0.00 0.15 0.15 79 1008.5
20260508214905 22 110 4.8 12.9 0.00 0.15 0.15 79 1008.6
20260508214805 22 114 4.8 12.9 0.00 0.15 0.15 80 1008.5
20260508214605 22 115 4.8 12.9 0.00 0.15 0.15 80 1008.6
20260508214506 22 116 4.8 12.9 0.00 0.15 0.15 80 1008.6
20260508214405 22 116 4.8 12.9 0.00 0.15 0.15 80 1008.7
20260508214305 22 115 6.4 12.9 0.00 0.15 0.15 80 1008.8
20260508214205 22 112 6.4 12.9 0.00 0.15 0.15 80 1008.8
20260508214005 22 110 6.4 12.9 0.00 0.15 0.15 80 1008.8
20260508213705 22 105 8.0 14.5 0.00 0.15 0.15 80 1008.8
20260508213605 22 104 8.0 16.1 0.00 0.15 0.15 80 1008.8
20260508213505 22 103 8.0 16.1 0.00 0.15 0.15 80 1008.8
20260508213404 22 101 8.0 16.1 0.00 0.15 0.15 80 1008.8
20260508213305 22 101 8.0 16.1 0.00 0.15 0.15 81 1008.8
20260508212805 22 96 8.0 16.1 0.00 0.15 0.15 81 1008.8
20260508212604 22 90 8.0 14.5 0.00 0.15 0.15 81 1008.9
20260508212506 22 89 8.0 14.5 0.00 0.15 0.15 81 1008.9
20260508212205 22 89 8.0 14.5 0.00 0.15 0.15 81 1009.1
20260508212005 22 89 8.0 14.5 0.00 0.15 0.15 81 1009.2
20260508211905 22 87 6.4 14.5 0.00 0.15 0.15 81 1009.2
20260508211805 22 90 8.0 14.5 0.00 0.15 0.15 81 1009.2
20260508211605 22 99 6.4 14.5 0.00 0.15 0.15 80 1009.2
20260508211506 22 99 6.4 14.5 0.00 0.15 0.15 80 1009.2
20260508211405 22 100 6.4 14.5 0.00 0.15 0.15 80 1009.2
20260508211305 22 98 6.4 14.5 0.00 0.15 0.15 79 1009.3
20260508211205 22 101 6.4 14.5 0.00 0.15 0.15 79 1009.3
20260508211105 22 103 6.4 14.5 0.00 0.15 0.15 80 1009.2
20260508211004 22 105 6.4 14.5 0.00 0.15 0.15 80 1009.2
20260508210905 22 105 6.4 14.5 0.00 0.15 0.15 80 1009.2
20260508210804 22 103 8.0 16.1 0.00 0.15 0.15 80 1009.2
20260508210705 22 101 8.0 16.1 0.00 0.15 0.15 81 1009.2
20260508210605 22 100 8.0 16.1 0.00 0.15 0.15 81 1009.1
20260508210505 22 103 8.0 16.1 0.00 0.15 0.15 82 1009.1
20260508210405 22 104 8.0 16.1 0.00 0.15 0.15 82 1009.1
20260508210305 21 106 8.0 16.1 0.00 0.15 0.15 82 1009.0
20260508210205 21 107 8.0 16.1 0.00 0.15 0.15 82 1009.0
20260508210105 21 108 8.0 16.1 0.00 0.15 0.15 82 1009.0
20260508210005 21 108 8.0 16.1 0.00 0.15 0.15 82 1009.1
20260508205906 21 111 8.0 16.1 0.00 0.15 0.15 83 1009.2
20260508205705 21 111 8.0 16.1 0.00 0.15 0.15 83 1009.3
20260508205605 21 111 8.0 16.1 0.00 0.15 0.15 83 1009.4
20260508205505 21 114 8.0 16.1 0.00 0.15 0.15 82 1009.4
20260508205306 21 115 6.4 16.1 0.00 0.15 0.15 82 1009.5
20260508205204 21 115 6.4 14.5 0.00 0.15 0.15 82 1009.6
20260508205105 21 115 8.0 14.5 0.00 0.15 0.15 82 1009.6
20260508205004 21 117 8.0 14.5 0.00 0.15 0.15 82 1009.6
20260508204905 21 118 8.0 14.5 0.00 0.15 0.15 82 1009.6
20260508204805 21 121 8.0 14.5 0.00 0.15 0.15 82 1009.7
20260508204406 21 126 6.4 14.5 0.00 0.15 0.15 82 1009.7
20260508204305 21 128 6.4 14.5 0.00 0.15 0.15 82 1009.7
20260508204205 21 128 6.4 14.5 0.00 0.15 0.15 82 1009.7
20260508204105 21 126 6.4 14.5 0.00 0.15 0.15 82 1009.8
20260508204005 21 125 6.4 14.5 0.00 0.15 0.15 82 1009.8
20260508203905 21 126 6.4 14.5 0.00 0.15 0.15 82 1009.9
20260508203805 21 125 4.8 14.5 0.00 0.15 0.15 82 1009.9
20260508203705 21 127 6.4 12.9 0.00 0.15 0.15 81 1009.9
20260508203605 21 128 6.4 16.1 0.00 0.15 0.15 81 1010.0
20260508203305 21 128 8.0 16.1 0.00 0.15 0.15 81 1009.9
20260508203205 21 124 8.0 16.1 0.00 0.15 0.15 81 1009.9
20260508203105 21 122 8.0 16.1 0.00 0.15 0.15 81 1009.9
20260508202905 21 116 9.7 16.1 0.00 0.15 0.15 81 1009.9
20260508202706 22 113 9.7 16.1 0.00 0.15 0.15 81 1009.8
20260508202605 22 111 9.7 16.1 0.00 0.15 0.15 81 1009.7
20260508202505 22 106 9.7 16.1 0.00 0.15 0.15 81 1009.7
20260508202406 22 100 9.7 16.1 0.00 0.15 0.15 80 1009.7
20260508202307 22 98 9.7 16.1 0.00 0.15 0.15 81 1009.7
20260508202205 22 97 9.7 16.1 0.00 0.15 0.15 81 1009.6
20260508202105 22 96 9.7 16.1 0.00 0.15 0.15 81 1009.6
20260508202005 22 96 9.7 16.1 0.00 0.15 0.15 80 1009.5
20260508201905 22 96 9.7 16.1 0.00 0.15 0.15 80 1009.6
20260508201704 22 95 8.0 16.1 0.00 0.15 0.15 81 1009.6